| time (UTC) | temp F | wind direction | speed MPH | gust MPH | rain 1hr in | rain 24hr in | rain mn in | humidity % | barometer mb |
| 20260906222341 | 84 | 24 | 4.0 | 12.0 | 0.00 | 0.05 | 0.04 | 62 | 1015.4 |
| 20260906222239 | 84 | 0 | 3.0 | 10.0 | 0.00 | 0.05 | 0.04 | 62 | 1015.4 |
| 20260906222130 | 84 | 355 | 3.0 | 10.0 | 0.00 | 0.05 | 0.04 | 62 | 1015.3 |
| 20260906222024 | 84 | 269 | 3.0 | 10.0 | 0.00 | 0.05 | 0.04 | 62 | 1015.3 |
| 20260906221925 | 84 | 284 | 3.0 | 10.0 | 0.00 | 0.05 | 0.04 | 62 | 1015.3 |
| 20260906221827 | 84 | 36 | 3.0 | 10.0 | 0.00 | 0.05 | 0.04 | 63 | 1015.3 |
| 20260906221759 | 84 | 5 | 3.0 | 10.0 | 0.00 | 0.05 | 0.04 | 63 | 1015.3 |
| 20260906221748 | 84 | 5 | 3.0 | 10.0 | 0.00 | 0.05 | 0.04 | 62 | 1015.3 |
| 20260906221519 | 84 | 5 | 3.0 | 10.0 | 0.00 | 0.05 | 0.04 | 62 | 1015.3 |
| 20260906221422 | 84 | 16 | 3.0 | 10.0 | 0.00 | 0.05 | 0.04 | 62 | 1015.3 |
| 20260906221337 | 85 | 39 | 2.0 | 9.0 | 0.00 | 0.05 | 0.04 | 62 | 1015.4 |
| 20260906221332 | 85 | 83 | 2.0 | 8.0 | 0.00 | 0.05 | 0.04 | 62 | 1015.4 |
| 20260906221322 | 84 | 47 | 3.0 | 10.0 | 0.00 | 0.05 | 0.04 | 62 | 1015.4 |
| 20260906221300 | 85 | 59 | 3.0 | 9.0 | 0.00 | 0.05 | 0.04 | 63 | 1015.4 |
| 20260906220914 | 85 | 119 | 2.0 | 8.0 | 0.00 | 0.05 | 0.04 | 62 | 1015.4 |
| 20260906220815 | 85 | 19 | 2.0 | 8.0 | 0.00 | 0.05 | 0.04 | 62 | 1015.4 |
| 20260906220714 | 85 | 71 | 3.0 | 8.0 | 0.00 | 0.05 | 0.04 | 62 | 1015.4 |
| 20260906220610 | 85 | 71 | 3.0 | 9.0 | 0.00 | 0.05 | 0.04 | 61 | 1015.3 |
| 20260906220545 | 86 | 47 | 3.0 | 9.0 | 0.00 | 0.05 | 0.04 | 61 | 1015.3 |
| 20260906220531 | 85 | 20 | 2.0 | 9.0 | 0.00 | 0.05 | 0.04 | 61 | 1015.3 |
| 20260906220354 | 87 | 5 | 4.0 | 11.0 | 0.00 | 0.05 | 0.04 | 60 | 1015.3 |
| 20260906220350 | 86 | 65 | 3.0 | 11.0 | 0.00 | 0.05 | 0.04 | 60 | 1015.4 |
| 20260906220344 | 86 | 69 | 3.0 | 11.0 | 0.00 | 0.05 | 0.04 | 61 | 1015.3 |
| 20260906220339 | 87 | 36 | 4.0 | 11.0 | 0.00 | 0.05 | 0.04 | 60 | 1015.3 |
| 20260906220325 | 86 | 108 | 3.0 | 9.0 | 0.00 | 0.05 | 0.04 | 61 | 1015.3 |
| 20260906220307 | 86 | 65 | 3.0 | 11.0 | 0.00 | 0.05 | 0.04 | 61 | 1015.4 |
| 20260906220007 | 86 | 74 | 3.0 | 11.0 | 0.00 | 0.05 | 0.04 | 61 | 1015.4 |
| 20260906215947 | 86 | 102 | 3.0 | 11.0 | 0.00 | 0.05 | 0.04 | 61 | 1015.3 |
| 20260906215751 | 87 | 69 | 3.0 | 11.0 | 0.00 | 0.05 | 0.04 | 60 | 1015.3 |
| 20260906215448 | 87 | 57 | 4.0 | 11.0 | 0.00 | 0.05 | 0.04 | 59 | 1015.4 |
| 20260906215433 | 87 | 13 | 4.0 | 11.0 | 0.00 | 0.05 | 0.04 | 59 | 1015.3 |
| 20260906215201 | 87 | 355 | 4.0 | 12.0 | 0.00 | 0.05 | 0.04 | 61 | 1015.4 |
| 20260906215100 | 87 | 67 | 4.0 | 12.0 | 0.00 | 0.05 | 0.04 | 61 | 1015.4 |
| 20260906215008 | 88 | 79 | 4.0 | 12.0 | 0.00 | 0.05 | 0.04 | 61 | 1015.3 |
| 20260906214931 | 88 | 325 | 5.0 | 12.0 | 0.00 | 0.05 | 0.04 | 60 | 1015.3 |
| 20260906214919 | 87 | 337 | 5.0 | 12.0 | 0.00 | 0.05 | 0.04 | 60 | 1015.3 |
| 20260906214656 | 88 | 281 | 5.0 | 12.0 | 0.00 | 0.05 | 0.04 | 60 | 1015.2 |
| 20260906214557 | 88 | 351 | 5.0 | 12.0 | 0.00 | 0.05 | 0.04 | 60 | 1015.3 |
| 20260906214457 | 88 | 336 | 5.0 | 12.0 | 0.00 | 0.05 | 0.04 | 60 | 1015.2 |
| 20260906214352 | 88 | 323 | 5.0 | 12.0 | 0.00 | 0.05 | 0.04 | 60 | 1015.3 |
| 20260906214248 | 88 | 9 | 5.0 | 12.0 | 0.00 | 0.05 | 0.04 | 60 | 1015.2 |
| 20260906214158 | 88 | 340 | 5.0 | 12.0 | 0.00 | 0.05 | 0.04 | 60 | 1015.2 |
| 20260906214050 | 87 | 328 | 5.0 | 12.0 | 0.00 | 0.05 | 0.04 | 60 | 1015.2 |
| 20260906214023 | 87 | 22 | 5.0 | 12.0 | 0.00 | 0.05 | 0.04 | 59 | 1015.1 |
| 20260906214012 | 87 | 284 | 5.0 | 12.0 | 0.00 | 0.05 | 0.04 | 60 | 1015.2 |
| 20260906213744 | 88 | 334 | 4.0 | 11.0 | 0.00 | 0.05 | 0.04 | 59 | 1015.2 |
| 20260906213644 | 88 | 308 | 4.0 | 10.0 | 0.00 | 0.05 | 0.04 | 60 | 1015.2 |
| 20260906213542 | 88 | 39 | 4.0 | 10.0 | 0.00 | 0.05 | 0.04 | 61 | 1015.2 |
| 20260906213439 | 88 | 348 | 4.0 | 10.0 | 0.00 | 0.05 | 0.04 | 59 | 1015.2 |
| 20260906213334 | 87 | 294 | 3.0 | 10.0 | 0.00 | 0.05 | 0.04 | 61 | 1015.1 |
| 20260906213236 | 87 | 347 | 3.0 | 10.0 | 0.00 | 0.05 | 0.04 | 61 | 1015.2 |
| 20260906213138 | 87 | 319 | 3.0 | 10.0 | 0.00 | 0.05 | 0.04 | 61 | 1015.2 |
| 20260906213117 | 87 | 53 | 3.0 | 10.0 | 0.00 | 0.05 | 0.04 | 62 | 1015.4 |
| 20260906213103 | 87 | 73 | 3.0 | 10.0 | 0.00 | 0.05 | 0.04 | 61 | 1015.3 |
| 20260906212835 | 87 | 0 | 3.0 | 6.0 | 0.00 | 0.05 | 0.04 | 62 | 1015.2 |
| 20260906212734 | 87 | 77 | 3.0 | 6.0 | 0.00 | 0.05 | 0.04 | 63 | 1015.2 |
| 20260906212710 | 87 | 300 | 3.0 | 6.0 | 0.00 | 0.05 | 0.04 | 62 | 1015.3 |
| 20260906212658 | 87 | 300 | 3.0 | 6.0 | 0.00 | 0.05 | 0.04 | 62 | 1015.3 |
| 20260906212436 | 87 | 321 | 3.0 | 6.0 | 0.00 | 0.05 | 0.04 | 62 | 1015.3 |
| 20260906212332 | 87 | 66 | 3.0 | 6.0 | 0.00 | 0.05 | 0.04 | 64 | 1015.3 |
| 20260906212234 | 87 | 69 | 3.0 | 9.0 | 0.00 | 0.05 | 0.04 | 63 | 1015.3 |
| 20260906212132 | 86 | 21 | 3.0 | 9.0 | 0.00 | 0.05 | 0.04 | 65 | 1015.3 |
| 20260906212032 | 86 | 37 | 3.0 | 9.0 | 0.00 | 0.05 | 0.04 | 64 | 1015.2 |
| 20260906211933 | 86 | 75 | 3.0 | 9.0 | 0.00 | 0.05 | 0.04 | 64 | 1015.2 |
| 20260906211831 | 86 | 108 | 3.0 | 9.0 | 0.00 | 0.05 | 0.04 | 64 | 1015.2 |
| 20260906211800 | 86 | 41 | 3.0 | 9.0 | 0.00 | 0.05 | 0.04 | 65 | 1015.2 |
| 20260906211749 | 86 | 355 | 3.0 | 9.0 | 0.00 | 0.05 | 0.04 | 64 | 1015.2 |
| 20260906211557 | 86 | 71 | 4.0 | 9.0 | 0.00 | 0.05 | 0.04 | 64 | 1015.2 |
| 20260906211548 | 86 | 41 | 3.0 | 9.0 | 0.00 | 0.05 | 0.04 | 65 | 1015.2 |
| 20260906211326 | 86 | 61 | 4.0 | 9.0 | 0.00 | 0.05 | 0.04 | 65 | 1015.3 |
| 20260906211227 | 86 | 12 | 3.0 | 9.0 | 0.00 | 0.05 | 0.04 | 64 | 1015.3 |
| 20260906211119 | 87 | 12 | 3.0 | 9.0 | 0.00 | 0.05 | 0.04 | 63 | 1015.3 |
| 20260906211049 | 87 | 16 | 3.0 | 9.0 | 0.00 | 0.05 | 0.04 | 61 | 1015.3 |
| 20260906211040 | 87 | 75 | 3.0 | 9.0 | 0.00 | 0.05 | 0.04 | 62 | 1015.3 |
| 20260906210819 | 87 | 53 | 3.0 | 9.0 | 0.00 | 0.05 | 0.04 | 61 | 1015.3 |
| 20260906210719 | 88 | 86 | 3.0 | 9.0 | 0.00 | 0.05 | 0.04 | 61 | 1015.3 |
| 20260906210620 | 88 | 28 | 3.0 | 7.0 | 0.00 | 0.05 | 0.04 | 61 | 1015.3 |
| 20260906210515 | 88 | 46 | 3.0 | 12.0 | 0.00 | 0.05 | 0.04 | 61 | 1015.3 |
| 20260906210442 | 88 | 77 | 3.0 | 12.0 | 0.00 | 0.05 | 0.04 | 61 | 1015.3 |
| 20260906210437 | 89 | 82 | 3.0 | 12.0 | 0.00 | 0.05 | 0.04 | 61 | 1015.3 |
| 20260906210425 | 88 | 71 | 3.0 | 12.0 | 0.00 | 0.05 | 0.04 | 61 | 1015.3 |
| 20260906210404 | 89 | 148 | 3.0 | 12.0 | 0.00 | 0.05 | 0.04 | 61 | 1015.3 |
| 20260906210051 | 88 | 34 | 4.0 | 13.0 | 0.00 | 0.05 | 0.04 | 61 | 1015.2 |
| 20260906210045 | 88 | 332 | 5.0 | 13.0 | 0.00 | 0.05 | 0.04 | 61 | 1015.3 |
| 20260906210039 | 88 | 15 | 4.0 | 13.0 | 0.00 | 0.05 | 0.04 | 62 | 1015.3 |
| 20260906210030 | 88 | 18 | 3.0 | 12.0 | 0.00 | 0.05 | 0.04 | 62 | 1015.2 |
| 20260906210008 | 88 | 51 | 4.0 | 12.0 | 0.00 | 0.05 | 0.04 | 61 | 1015.3 |
| 20260906205847 | 88 | 27 | 4.0 | 12.0 | 0.00 | 0.05 | 0.04 | 61 | 1015.2 |
| 20260906205652 | 88 | 57 | 4.0 | 13.0 | 0.00 | 0.05 | 0.04 | 61 | 1015.3 |
| 20260906205307 | 88 | 36 | 5.0 | 13.0 | 0.00 | 0.05 | 0.04 | 60 | 1015.2 |
| 20260906205211 | 88 | 9 | 5.0 | 13.0 | 0.00 | 0.05 | 0.04 | 61 | 1015.2 |
| 20260906205145 | 87 | 280 | 5.0 | 13.0 | 0.00 | 0.05 | 0.04 | 61 | 1015.2 |
| 20260906205133 | 88 | 355 | 5.0 | 13.0 | 0.00 | 0.05 | 0.04 | 61 | 1015.1 |
| 20260906204908 | 87 | 303 | 5.0 | 13.0 | 0.00 | 0.05 | 0.04 | 61 | 1015.2 |
| 20260906204808 | 87 | 314 | 4.0 | 13.0 | 0.00 | 0.05 | 0.04 | 61 | 1015.2 |
| 20260906204743 | 87 | 346 | 4.0 | 10.0 | 0.00 | 0.05 | 0.04 | 63 | 1015.2 |
| 20260906204731 | 87 | 325 | 4.0 | 10.0 | 0.00 | 0.05 | 0.04 | 63 | 1015.2 |
| 20260906204552 | 87 | 276 | 5.0 | 11.0 | 0.00 | 0.05 | 0.04 | 63 | 1015.3 |
| 20260906204538 | 87 | 252 | 5.0 | 10.0 | 0.00 | 0.05 | 0.04 | 62 | 1015.2 |
| 20260906204306 | 87 | 282 | 4.0 | 11.0 | 0.00 | 0.05 | 0.04 | 63 | 1015.3 |
| 20260906204205 | 87 | 5 | 4.0 | 11.0 | 0.00 | 0.05 | 0.04 | 63 | 1015.3 |
| 20260906204104 | 87 | 311 | 4.0 | 11.0 | 0.00 | 0.05 | 0.04 | 64 | 1015.3 |
| 20260906204003 | 87 | 350 | 4.0 | 11.0 | 0.00 | 0.05 | 0.04 | 64 | 1015.3 |
| 20260906203942 | 87 | 42 | 4.0 | 11.0 | 0.00 | 0.05 | 0.04 | 64 | 1015.4 |
| 20260906203929 | 87 | 265 | 4.0 | 11.0 | 0.00 | 0.05 | 0.04 | 64 | 1015.4 |
| 20260906203703 | 86 | 323 | 4.0 | 11.0 | 0.00 | 0.05 | 0.04 | 65 | 1015.4 |
| 20260906203602 | 86 | 291 | 4.0 | 11.0 | 0.00 | 0.05 | 0.04 | 65 | 1015.4 |
| 20260906203504 | 86 | 331 | 4.0 | 11.0 | 0.00 | 0.05 | 0.04 | 65 | 1015.4 |
| 20260906203404 | 86 | 5 | 3.0 | 11.0 | 0.00 | 0.05 | 0.04 | 65 | 1015.5 |
| 20260906203302 | 86 | 272 | 3.0 | 11.0 | 0.00 | 0.05 | 0.04 | 66 | 1015.4 |
| 20260906203203 | 86 | 0 | 3.0 | 11.0 | 0.00 | 0.05 | 0.04 | 66 | 1015.5 |
| 20260906203104 | 86 | 238 | 3.0 | 9.0 | 0.00 | 0.05 | 0.04 | 66 | 1015.5 |
| 20260906203002 | 85 | 323 | 3.0 | 9.0 | 0.00 | 0.05 | 0.04 | 66 | 1015.4 |
| 20260906202945 | 85 | 299 | 3.0 | 10.0 | 0.00 | 0.05 | 0.04 | 67 | 1015.6 |
| 20260906202930 | 85 | 68 | 3.0 | 7.0 | 0.00 | 0.05 | 0.04 | 67 | 1015.5 |
| 20260906202702 | 85 | 287 | 3.0 | 11.0 | 0.00 | 0.05 | 0.04 | 67 | 1015.6 |
| 20260906202606 | 85 | 198 | 3.0 | 11.0 | 0.00 | 0.05 | 0.04 | 67 | 1015.6 |
| 20260906202504 | 85 | 198 | 4.0 | 11.0 | 0.00 | 0.05 | 0.04 | 67 | 1015.6 |
| 20260906202406 | 85 | 198 | 4.0 | 11.0 | 0.00 | 0.05 | 0.04 | 67 | 1015.6 |
| 20260906202300 | 85 | 197 | 4.0 | 11.0 | 0.00 | 0.05 | 0.04 | 67 | 1015.6 |
| 20260906202204 | 85 | 279 | 4.0 | 11.0 | 0.00 | 0.05 | 0.04 | 67 | 1015.6 |
| 20260906202138 | 85 | 218 | 4.0 | 11.0 | 0.00 | 0.05 | 0.04 | 67 | 1015.7 |
| 20260906202123 | 85 | 248 | 5.0 | 11.0 | 0.00 | 0.05 | 0.04 | 68 | 1015.6 |
| 20260906201856 | 85 | 321 | 4.0 | 11.0 | 0.00 | 0.05 | 0.04 | 66 | 1015.6 |
| 20260906201756 | 85 | 299 | 4.0 | 10.0 | 0.00 | 0.05 | 0.04 | 66 | 1015.7 |
| 20260906201655 | 85 | 233 | 4.0 | 10.0 | 0.00 | 0.05 | 0.04 | 67 | 1015.7 |
| 20260906201556 | 85 | 337 | 4.0 | 10.0 | 0.00 | 0.05 | 0.04 | 67 | 1015.6 |
| 20260906201526 | 85 | 333 | 4.0 | 10.0 | 0.00 | 0.05 | 0.04 | 67 | 1015.6 |
| 20260906201516 | 85 | 306 | 4.0 | 10.0 | 0.00 | 0.05 | 0.04 | 67 | 1015.6 |
| 20260906201252 | 85 | 296 | 4.0 | 10.0 | 0.00 | 0.05 | 0.04 | 67 | 1015.6 |
| 20260906201152 | 85 | 286 | 4.0 | 9.0 | 0.00 | 0.05 | 0.04 | 67 | 1015.7 |
| 20260906201054 | 84 | 9 | 3.0 | 9.0 | 0.00 | 0.05 | 0.04 | 66 | 1015.7 |
| 20260906201014 | 84 | 305 | 3.0 | 9.0 | 0.00 | 0.05 | 0.04 | 66 | 1015.7 |
| 20260906201003 | 84 | 268 | 3.0 | 9.0 | 0.00 | 0.05 | 0.04 | 66 | 1015.7 |
| 20260906200738 | 84 | 333 | 3.0 | 9.0 | 0.00 | 0.05 | 0.04 | 66 | 1015.6 |
| 20260906200639 | 85 | 321 | 3.0 | 9.0 | 0.00 | 0.05 | 0.04 | 65 | 1015.6 |
| 20260906200541 | 85 | 306 | 3.0 | 9.0 | 0.00 | 0.05 | 0.04 | 65 | 1015.6 |
| 20260906200439 | 85 | 5 | 3.0 | 9.0 | 0.00 | 0.05 | 0.04 | 65 | 1015.7 |
| 20260906200336 | 85 | 23 | 3.0 | 9.0 | 0.00 | 0.05 | 0.04 | 65 | 1015.6 |
| 20260906200237 | 85 | 336 | 3.0 | 7.0 | 0.00 | 0.05 | 0.04 | 65 | 1015.7 |
| 20260906200135 | 85 | 321 | 2.0 | 7.0 | 0.00 | 0.05 | 0.04 | 66 | 1015.6 |
| 20260906200041 | 85 | 63 | 3.0 | 7.0 | 0.00 | 0.05 | 0.04 | 66 | 1015.7 |
| 20260906195931 | 86 | 16 | 3.0 | 7.0 | 0.00 | 0.05 | 0.04 | 65 | 1015.6 |
| 20260906195833 | 86 | 16 | 3.0 | 7.0 | 0.00 | 0.05 | 0.04 | 65 | 1015.7 |
| 20260906195825 | 86 | 32 | 3.0 | 7.0 | 0.00 | 0.05 | 0.04 | 63 | 1015.7 |
| 20260906195806 | 86 | 16 | 3.0 | 7.0 | 0.00 | 0.05 | 0.04 | 65 | 1015.7 |
| 20260906195643 | 87 | 47 | 3.0 | 7.0 | 0.00 | 0.05 | 0.04 | 62 | 1015.7 |
| 20260906195633 | 86 | 59 | 3.0 | 7.0 | 0.00 | 0.05 | 0.04 | 64 | 1015.7 |
| 20260906195612 | 86 | 78 | 3.0 | 7.0 | 0.00 | 0.05 | 0.04 | 64 | 1015.7 |
| 20260906195229 | 87 | 16 | 3.0 | 7.0 | 0.00 | 0.05 | 0.04 | 62 | 1015.7 |
| 20260906195202 | 87 | 76 | 3.0 | 7.0 | 0.00 | 0.05 | 0.04 | 62 | 1015.6 |
| 20260906195152 | 87 | 73 | 4.0 | 7.0 | 0.00 | 0.05 | 0.04 | 62 | 1015.7 |
| 20260906194929 | 87 | 56 | 3.0 | 7.0 | 0.00 | 0.05 | 0.04 | 61 | 1015.6 |
| 20260906194827 | 87 | 31 | 3.0 | 7.0 | 0.00 | 0.05 | 0.04 | 61 | 1015.7 |
| 20260906194723 | 87 | 67 | 3.0 | 6.0 | 0.00 | 0.05 | 0.04 | 61 | 1015.8 |
| 20260906194629 | 88 | 74 | 3.0 | 6.0 | 0.00 | 0.05 | 0.04 | 61 | 1015.8 |
| 20260906194530 | 88 | 63 | 2.0 | 6.0 | 0.00 | 0.05 | 0.04 | 60 | 1015.8 |
| 20260906194426 | 88 | 343 | 2.0 | 6.0 | 0.00 | 0.05 | 0.04 | 60 | 1015.8 |
| 20260906194329 | 88 | 92 | 2.0 | 6.0 | 0.00 | 0.05 | 0.04 | 59 | 1015.8 |
| 20260906194225 | 88 | 52 | 2.0 | 6.0 | 0.00 | 0.05 | 0.04 | 59 | 1015.8 |
| 20260906194205 | 89 | 49 | 2.0 | 7.0 | 0.00 | 0.05 | 0.04 | 59 | 1015.9 |
| 20260906194151 | 89 | 33 | 2.0 | 6.0 | 0.00 | 0.05 | 0.04 | 59 | 1015.9 |
| 20260906193922 | 89 | 67 | 2.0 | 7.0 | 0.00 | 0.05 | 0.04 | 59 | 1015.9 |
| 20260906193854 | 88 | 54 | 3.0 | 9.0 | 0.00 | 0.05 | 0.04 | 60 | 1016.0 |
| 20260906193844 | 88 | 23 | 3.0 | 9.0 | 0.00 | 0.05 | 0.04 | 59 | 1016.0 |
| 20260906193623 | 88 | 54 | 3.0 | 9.0 | 0.00 | 0.05 | 0.04 | 59 | 1016.0 |
| 20260906193521 | 88 | 54 | 4.0 | 9.0 | 0.00 | 0.05 | 0.04 | 59 | 1016.0 |
| 20260906193421 | 88 | 49 | 4.0 | 9.0 | 0.00 | 0.05 | 0.04 | 59 | 1015.9 |
| 20260906193323 | 88 | 68 | 4.0 | 9.0 | 0.00 | 0.05 | 0.04 | 60 | 1016.0 |
| 20260906193222 | 88 | 5 | 4.0 | 9.0 | 0.00 | 0.05 | 0.04 | 59 | 1016.0 |
| 20260906193145 | 87 | 329 | 4.0 | 8.0 | 0.00 | 0.05 | 0.04 | 59 | 1016.1 |
| 20260906193137 | 87 | 345 | 4.0 | 10.0 | 0.00 | 0.05 | 0.04 | 61 | 1016.2 |
| 20260906193126 | 88 | 333 | 4.0 | 9.0 | 0.00 | 0.05 | 0.04 | 60 | 1016.0 |
| 20260906193103 | 88 | 0 | 4.0 | 9.0 | 0.00 | 0.05 | 0.04 | 60 | 1016.0 |
| 20260906192934 | 87 | 343 | 4.0 | 9.0 | 0.00 | 0.05 | 0.04 | 60 | 1016.0 |
| 20260906192914 | 87 | 304 | 4.0 | 8.0 | 0.00 | 0.05 | 0.04 | 60 | 1016.1 |
| 20260906192624 | 87 | 40 | 4.0 | 10.0 | 0.00 | 0.05 | 0.04 | 61 | 1016.1 |
| 20260906192602 | 87 | 329 | 4.0 | 10.0 | 0.00 | 0.05 | 0.04 | 62 | 1016.1 |
| 20260906192311 | 87 | 288 | 4.0 | 10.0 | 0.00 | 0.05 | 0.04 | 61 | 1016.1 |
| 20260906192210 | 87 | 242 | 4.0 | 10.0 | 0.00 | 0.05 | 0.04 | 61 | 1016.2 |
| 20260906192111 | 87 | 316 | 4.0 | 10.0 | 0.00 | 0.05 | 0.04 | 61 | 1016.2 |
| 20260906192035 | 87 | 355 | 4.0 | 10.0 | 0.00 | 0.05 | 0.04 | 61 | 1016.2 |
| 20260906192029 | 87 | 328 | 4.0 | 10.0 | 0.00 | 0.05 | 0.04 | 62 | 1016.3 |
| 20260906192016 | 87 | 319 | 4.0 | 10.0 | 0.00 | 0.05 | 0.04 | 61 | 1016.2 |
| 20260906191949 | 87 | 346 | 4.0 | 10.0 | 0.00 | 0.05 | 0.04 | 62 | 1016.2 |
| 20260906191643 | 87 | 332 | 4.0 | 10.0 | 0.00 | 0.05 | 0.04 | 61 | 1016.4 |
| 20260906191630 | 87 | 5 | 4.0 | 10.0 | 0.00 | 0.05 | 0.04 | 61 | 1016.3 |
| 20260906191405 | 87 | 0 | 4.0 | 10.0 | 0.00 | 0.05 | 0.04 | 61 | 1016.3 |
| 20260906191305 | 87 | 11 | 4.0 | 10.0 | 0.00 | 0.05 | 0.04 | 61 | 1016.3 |
| 20260906191237 | 88 | 55 | 4.0 | 10.0 | 0.00 | 0.05 | 0.04 | 60 | 1016.3 |
| 20260906191226 | 88 | 61 | 4.0 | 10.0 | 0.00 | 0.05 | 0.04 | 61 | 1016.3 |
| 20260906191002 | 88 | 19 | 4.0 | 10.0 | 0.00 | 0.05 | 0.04 | 61 | 1016.3 |
| 20260906190931 | 88 | 64 | 4.0 | 10.0 | 0.00 | 0.05 | 0.04 | 62 | 1016.3 |
| 20260906190921 | 88 | 15 | 4.0 | 10.0 | 0.00 | 0.05 | 0.04 | 61 | 1016.3 |
| 20260906190700 | 89 | 18 | 4.0 | 10.0 | 0.00 | 0.05 | 0.04 | 61 | 1016.3 |
| 20260906190646 | 89 | 0 | 4.0 | 10.0 | 0.00 | 0.05 | 0.04 | 60 | 1016.3 |
| 20260906190640 | 89 | 324 | 4.0 | 10.0 | 0.00 | 0.05 | 0.04 | 60 | 1016.3 |
| 20260906190622 | 89 | 88 | 5.0 | 10.0 | 0.00 | 0.05 | 0.04 | 61 | 1016.3 |
| 20260906190602 | 89 | 67 | 5.0 | 10.0 | 0.00 | 0.05 | 0.04 | 61 | 1016.3 |
| 20260906190313 | 89 | 351 | 4.0 | 10.0 | 0.00 | 0.05 | 0.04 | 60 | 1016.3 |
| 20260906190056 | 89 | 67 | 4.0 | 10.0 | 0.00 | 0.05 | 0.04 | 60 | 1016.3 |
| 20260906185956 | 89 | 37 | 4.0 | 10.0 | 0.00 | 0.05 | 0.04 | 62 | 1016.3 |
| 20260906185855 | 88 | 42 | 4.0 | 14.0 | 0.00 | 0.05 | 0.04 | 61 | 1016.3 |
| 20260906185756 | 88 | 54 | 4.0 | 14.0 | 0.00 | 0.05 | 0.04 | 61 | 1016.3 |
| 20260906185655 | 88 | 317 | 4.0 | 14.0 | 0.00 | 0.05 | 0.04 | 61 | 1016.4 |
| 20260906185556 | 88 | 341 | 4.0 | 14.0 | 0.00 | 0.05 | 0.04 | 61 | 1016.4 |
| 20260906185457 | 88 | 24 | 4.0 | 14.0 | 0.00 | 0.05 | 0.04 | 62 | 1016.4 |
| 20260906185402 | 88 | 336 | 5.0 | 14.0 | 0.00 | 0.05 | 0.04 | 61 | 1016.4 |
| 20260906185301 | 88 | 328 | 5.0 | 14.0 | 0.00 | 0.05 | 0.04 | 60 | 1016.4 |
| 20260906185156 | 88 | 315 | 4.0 | 14.0 | 0.00 | 0.05 | 0.04 | 61 | 1016.4 |
| 20260906185054 | 87 | 340 | 4.0 | 14.0 | 0.00 | 0.05 | 0.04 | 61 | 1016.4 |
| 20260906184953 | 87 | 294 | 4.0 | 14.0 | 0.00 | 0.05 | 0.04 | 62 | 1016.4 |
| 20260906184858 | 87 | 302 | 5.0 | 11.0 | 0.00 | 0.05 | 0.04 | 60 | 1016.5 |
| 20260906184751 | 87 | 70 | 5.0 | 11.0 | 0.00 | 0.05 | 0.04 | 62 | 1016.5 |
| 20260906184652 | 87 | 70 | 5.0 | 11.0 | 0.00 | 0.05 | 0.04 | 62 | 1016.5 |
| 20260906184546 | 87 | 330 | 5.0 | 11.0 | 0.00 | 0.05 | 0.04 | 61 | 1016.5 |
| 20260906184446 | 87 | 304 | 5.0 | 11.0 | 0.00 | 0.05 | 0.04 | 61 | 1016.5 |
| 20260906184359 | 88 | 26 | 5.0 | 11.0 | 0.00 | 0.05 | 0.04 | 61 | 1016.5 |
| 20260906184346 | 88 | 287 | 5.0 | 11.0 | 0.00 | 0.05 | 0.04 | 61 | 1016.5 |
| 20260906184327 | 88 | 309 | 5.0 | 11.0 | 0.00 | 0.05 | 0.04 | 61 | 1016.5 |
| 20260906184039 | 88 | 86 | 5.0 | 11.0 | 0.00 | 0.05 | 0.04 | 60 | 1016.5 |
| 20260906184024 | 88 | 347 | 5.0 | 11.0 | 0.00 | 0.05 | 0.04 | 61 | 1016.5 |
| 20260906184007 | 88 | 10 | 5.0 | 11.0 | 0.00 | 0.05 | 0.04 | 61 | 1016.7 |
| 20260906183741 | 88 | 13 | 5.0 | 11.0 | 0.00 | 0.05 | 0.04 | 62 | 1016.7 |
| 20260906183639 | 88 | 337 | 5.0 | 11.0 | 0.00 | 0.05 | 0.04 | 62 | 1016.5 |
| 20260906183611 | 88 | 71 | 5.0 | 11.0 | 0.00 | 0.05 | 0.04 | 61 | 1016.5 |
| 20260906183557 | 88 | 27 | 5.0 | 11.0 | 0.00 | 0.05 | 0.04 | 62 | 1016.5 |
| 20260906183334 | 88 | 29 | 5.0 | 11.0 | 0.00 | 0.05 | 0.04 | 62 | 1016.5 |
| 20260906183233 | 88 | 355 | 5.0 | 11.0 | 0.00 | 0.05 | 0.04 | 62 | 1016.4 |
| 20260906183136 | 88 | 107 | 5.0 | 11.0 | 0.00 | 0.05 | 0.04 | 62 | 1016.4 |
| 20260906183034 | 88 | 30 | 5.0 | 11.0 | 0.00 | 0.05 | 0.04 | 62 | 1016.4 |
| 20260906183005 | 88 | 302 | 4.0 | 11.0 | 0.00 | 0.05 | 0.04 | 61 | 1016.5 |
| 20260906182955 | 88 | 38 | 4.0 | 11.0 | 0.00 | 0.05 | 0.04 | 61 | 1016.5 |
| 20260906182735 | 88 | 45 | 4.0 | 11.0 | 0.00 | 0.05 | 0.04 | 60 | 1016.5 |
| 20260906182712 | 88 | 0 | 3.0 | 11.0 | 0.00 | 0.05 | 0.04 | 61 | 1016.5 |
| 20260906182659 | 88 | 298 | 4.0 | 11.0 | 0.00 | 0.05 | 0.04 | 61 | 1016.5 |
| 20260906182508 | 89 | 124 | 3.0 | 11.0 | 0.00 | 0.05 | 0.04 | 61 | 1016.5 |
| 20260906182458 | 88 | 11 | 3.0 | 11.0 | 0.00 | 0.05 | 0.04 | 61 | 1016.4 |
| 20260906182234 | 89 | 52 | 3.0 | 11.0 | 0.00 | 0.05 | 0.04 | 61 | 1016.5 |
| 20260906182132 | 89 | 84 | 3.0 | 11.0 | 0.00 | 0.05 | 0.04 | 62 | 1016.4 |
| 20260906182032 | 89 | 24 | 3.0 | 11.0 | 0.00 | 0.05 | 0.04 | 62 | 1016.4 |
| 20260906181935 | 88 | 334 | 3.0 | 11.0 | 0.00 | 0.05 | 0.04 | 63 | 1016.4 |
| 20260906181907 | 88 | 107 | 3.0 | 12.0 | 0.00 | 0.05 | 0.04 | 63 | 1016.4 |
| 20260906181849 | 88 | 66 | 3.0 | 12.0 | 0.00 | 0.05 | 0.04 | 63 | 1016.4 |
| 20260906181618 | 88 | 5 | 3.0 | 12.0 | 0.00 | 0.05 | 0.04 | 63 | 1016.4 |
| 20260906181523 | 88 | 0 | 3.0 | 12.0 | 0.00 | 0.05 | 0.04 | 63 | 1016.5 |
| 20260906181419 | 88 | 90 | 3.0 | 12.0 | 0.00 | 0.05 | 0.04 | 63 | 1016.7 |
| 20260906181315 | 88 | 15 | 4.0 | 12.0 | 0.00 | 0.05 | 0.04 | 63 | 1016.4 |
| 20260906181214 | 87 | 346 | 4.0 | 12.0 | 0.00 | 0.05 | 0.04 | 63 | 1016.4 |
| 20260906181152 | 87 | 49 | 4.0 | 12.0 | 0.00 | 0.05 | 0.04 | 63 | 1016.4 |
| 20260906181142 | 87 | 310 | 4.0 | 12.0 | 0.00 | 0.05 | 0.04 | 64 | 1016.5 |
| 20260906180942 | 87 | 57 | 3.0 | 10.0 | 0.00 | 0.05 | 0.04 | 64 | 1016.7 |
| 20260906180931 | 87 | 288 | 4.0 | 12.0 | 0.00 | 0.05 | 0.04 | 64 | 1016.5 |
| 20260906180708 | 87 | 52 | 3.0 | 10.0 | 0.00 | 0.05 | 0.04 | 65 | 1016.5 |
| 20260906180607 | 87 | 86 | 4.0 | 10.0 | 0.00 | 0.05 | 0.04 | 66 | 1016.5 |
| 20260906180508 | 87 | 88 | 4.0 | 10.0 | 0.00 | 0.05 | 0.04 | 64 | 1016.7 |
| 20260906180406 | 87 | 72 | 4.0 | 10.0 | 0.00 | 0.05 | 0.04 | 64 | 1016.7 |
| 20260906180300 | 87 | 41 | 4.0 | 9.0 | 0.00 | 0.05 | 0.04 | 64 | 1016.7 |
| 20260906180200 | 87 | 347 | 3.0 | 8.0 | 0.00 | 0.05 | 0.04 | 64 | 1016.8 |
| 20260906180058 | 87 | 311 | 3.0 | 8.0 | 0.00 | 0.05 | 0.04 | 65 | 1016.8 |
| 20260906180000 | 87 | 326 | 4.0 | 8.0 | 0.00 | 0.05 | 0.04 | 65 | 1016.8 |
| 20260906175857 | 87 | 321 | 4.0 | 9.0 | 0.00 | 0.05 | 0.04 | 65 | 1016.8 |
| 20260906175752 | 86 | 64 | 4.0 | 9.0 | 0.00 | 0.05 | 0.04 | 65 | 1016.8 |
| 20260906175724 | 86 | 88 | 4.0 | 9.0 | 0.00 | 0.05 | 0.04 | 66 | 1016.8 |
| 20260906175714 | 86 | 64 | 4.0 | 9.0 | 0.00 | 0.05 | 0.04 | 65 | 1016.8 |
| 20260906175450 | 86 | 355 | 4.0 | 9.0 | 0.00 | 0.05 | 0.04 | 65 | 1016.9 |
| 20260906175351 | 86 | 339 | 4.0 | 9.0 | 0.00 | 0.05 | 0.04 | 65 | 1016.9 |
| 20260906175247 | 86 | 0 | 4.0 | 9.0 | 0.00 | 0.05 | 0.04 | 65 | 1016.9 |
| 20260906175143 | 86 | 331 | 4.0 | 9.0 | 0.00 | 0.05 | 0.04 | 68 | 1016.9 |
| 20260906175041 | 86 | 333 | 4.0 | 9.0 | 0.00 | 0.05 | 0.04 | 66 | 1016.9 |
| 20260906174941 | 86 | 259 | 4.0 | 9.0 | 0.00 | 0.05 | 0.04 | 66 | 1016.8 |
| 20260906174843 | 86 | 313 | 3.0 | 9.0 | 0.00 | 0.05 | 0.04 | 66 | 1016.8 |
| 20260906174728 | 86 | 317 | 3.0 | 9.0 | 0.00 | 0.05 | 0.04 | 67 | 1016.9 |
| 20260906174628 | 86 | 316 | 3.0 | 9.0 | 0.00 | 0.05 | 0.04 | 67 | 1016.9 |
| 20260906174528 | 86 | 5 | 3.0 | 9.0 | 0.00 | 0.05 | 0.04 | 66 | 1016.9 |
| 20260906174455 | 86 | 5 | 3.0 | 9.0 | 0.00 | 0.05 | 0.04 | 66 | 1017.0 |
| 20260906174327 | 86 | 5 | 3.0 | 9.0 | 0.00 | 0.05 | 0.04 | 67 | 1016.9 |
| 20260906174250 | 86 | 11 | 2.0 | 9.0 | 0.00 | 0.05 | 0.04 | 66 | 1016.9 |
| 20260906174240 | 86 | 98 | 2.0 | 9.0 | 0.00 | 0.05 | 0.04 | 66 | 1017.0 |
| 20260906174027 | 87 | 339 | 2.0 | 8.0 | 0.00 | 0.05 | 0.04 | 65 | 1016.8 |
| 20260906173921 | 87 | 318 | 2.0 | 8.0 | 0.00 | 0.05 | 0.04 | 66 | 1016.9 |
| 20260906173820 | 87 | 326 | 2.0 | 8.0 | 0.00 | 0.05 | 0.04 | 65 | 1016.8 |
| 20260906173725 | 86 | 5 | 2.0 | 8.0 | 0.00 | 0.05 | 0.04 | 67 | 1016.9 |
| 20260906173619 | 86 | 306 | 2.0 | 8.0 | 0.00 | 0.05 | 0.04 | 67 | 1016.8 |
| 20260906173517 | 86 | 306 | 2.0 | 8.0 | 0.00 | 0.05 | 0.04 | 67 | 1016.8 |
| 20260906173416 | 86 | 306 | 2.0 | 8.0 | 0.00 | 0.05 | 0.04 | 66 | 1016.8 |
| 20260906173315 | 86 | 338 | 2.0 | 8.0 | 0.00 | 0.05 | 0.04 | 66 | 1016.9 |
| 20260906173214 | 86 | 9 | 3.0 | 8.0 | 0.00 | 0.05 | 0.04 | 66 | 1016.9 |
| 20260906173125 | 85 | 5 | 3.0 | 9.0 | 0.00 | 0.05 | 0.04 | 68 | 1016.9 |
| 20260906173116 | 86 | 355 | 3.0 | 9.0 | 0.00 | 0.05 | 0.04 | 67 | 1016.9 |
| 20260906173055 | 85 | 94 | 3.0 | 9.0 | 0.00 | 0.05 | 0.04 | 67 | 1016.9 |
| 20260906172934 | 85 | 69 | 3.0 | 9.0 | 0.00 | 0.05 | 0.04 | 67 | 1016.9 |
| 20260906172714 | 85 | 5 | 3.0 | 9.0 | 0.00 | 0.05 | 0.04 | 68 | 1016.9 |
| 20260906172614 | 85 | 50 | 3.0 | 9.0 | 0.00 | 0.05 | 0.04 | 68 | 1016.8 |
| 20260906172513 | 85 | 49 | 4.0 | 9.0 | 0.00 | 0.05 | 0.04 | 68 | 1016.8 |
| 20260906172412 | 85 | 355 | 4.0 | 9.0 | 0.00 | 0.05 | 0.04 | 69 | 1016.9 |
| 20260906172313 | 85 | 79 | 4.0 | 9.0 | 0.00 | 0.05 | 0.04 | 68 | 1016.9 |
| 20260906172212 | 85 | 51 | 4.0 | 9.0 | 0.00 | 0.05 | 0.04 | 69 | 1016.9 |
| 20260906172113 | 85 | 46 | 4.0 | 9.0 | 0.00 | 0.05 | 0.04 | 70 | 1016.9 |
| 20260906172012 | 85 | 61 | 5.0 | 10.0 | 0.00 | 0.05 | 0.04 | 69 | 1016.9 |
| 20260906171909 | 85 | 0 | 5.0 | 10.0 | 0.00 | 0.05 | 0.04 | 69 | 1016.9 |
| 20260906171808 | 85 | 5 | 4.0 | 10.0 | 0.00 | 0.05 | 0.04 | 69 | 1016.9 |
| 20260906171708 | 85 | 355 | 4.0 | 10.0 | 0.00 | 0.05 | 0.04 | 68 | 1017.0 |
| 20260906171608 | 85 | 5 | 5.0 | 11.0 | 0.00 | 0.05 | 0.04 | 69 | 1016.9 |
| 20260906171508 | 85 | 335 | 5.0 | 11.0 | 0.00 | 0.05 | 0.04 | 69 | 1017.0 |
| 20260906171408 | 85 | 57 | 5.0 | 11.0 | 0.00 | 0.05 | 0.04 | 68 | 1016.9 |
| 20260906171304 | 85 | 344 | 5.0 | 11.0 | 0.00 | 0.05 | 0.04 | 68 | 1016.9 |
| 20260906171204 | 85 | 338 | 4.0 | 11.0 | 0.00 | 0.05 | 0.04 | 69 | 1016.9 |
| 20260906171105 | 85 | 344 | 4.0 | 11.0 | 0.00 | 0.05 | 0.04 | 69 | 1016.9 |
| 20260906171003 | 85 | 5 | 4.0 | 11.0 | 0.00 | 0.05 | 0.04 | 68 | 1017.0 |
| 20260906170903 | 85 | 38 | 4.0 | 11.0 | 0.00 | 0.05 | 0.04 | 69 | 1017.0 |
| 20260906170826 | 85 | 334 | 4.0 | 11.0 | 0.00 | 0.05 | 0.04 | 69 | 1017.0 |
| 20260906170821 | 85 | 33 | 4.0 | 9.0 | 0.00 | 0.05 | 0.04 | 69 | 1016.9 |
| 20260906170810 | 85 | 5 | 4.0 | 11.0 | 0.00 | 0.05 | 0.04 | 68 | 1016.9 |
| 20260906170749 | 85 | 17 | 4.0 | 11.0 | 0.00 | 0.05 | 0.04 | 69 | 1016.9 |
| 20260906170435 | 85 | 55 | 4.0 | 9.0 | 0.00 | 0.05 | 0.04 | 71 | 1017.0 |
| 20260906170424 | 85 | 328 | 4.0 | 9.0 | 0.00 | 0.05 | 0.04 | 70 | 1017.0 |
| 20260906170204 | 84 | 65 | 4.0 | 11.0 | 0.00 | 0.05 | 0.04 | 70 | 1017.0 |
| 20260906170106 | 84 | 331 | 5.0 | 11.0 | 0.00 | 0.05 | 0.04 | 71 | 1017.1 |
| 20260906170004 | 84 | 61 | 5.0 | 11.0 | 0.00 | 0.05 | 0.04 | 72 | 1017.1 |
| 20260906165905 | 84 | 9 | 5.0 | 12.0 | 0.00 | 0.05 | 0.04 | 71 | 1017.2 |
| 20260906165804 | 84 | 300 | 5.0 | 12.0 | 0.00 | 0.05 | 0.04 | 71 | 1017.1 |
| 20260906165703 | 83 | 312 | 5.0 | 12.0 | 0.00 | 0.05 | 0.04 | 72 | 1017.2 |
| 20260906165604 | 83 | 312 | 6.0 | 12.0 | 0.00 | 0.05 | 0.04 | 71 | 1017.2 |
| 20260906165509 | 83 | 331 | 6.0 | 12.0 | 0.00 | 0.05 | 0.04 | 72 | 1017.2 |
| 20260906165403 | 83 | 32 | 6.0 | 12.0 | 0.00 | 0.05 | 0.04 | 71 | 1017.2 |
| 20260906165306 | 83 | 333 | 6.0 | 12.0 | 0.00 | 0.05 | 0.04 | 71 | 1017.2 |
| 20260906165203 | 83 | 318 | 6.0 | 12.0 | 0.00 | 0.05 | 0.04 | 70 | 1017.2 |
| 20260906165104 | 83 | 355 | 6.0 | 12.0 | 0.00 | 0.05 | 0.04 | 71 | 1017.2 |
| 20260906165037 | 83 | 301 | 5.0 | 12.0 | 0.00 | 0.05 | 0.04 | 70 | 1017.2 |
| 20260906165026 | 83 | 304 | 5.0 | 12.0 | 0.00 | 0.05 | 0.04 | 70 | 1017.2 |
| 20260906164805 | 83 | 5 | 6.0 | 12.0 | 0.00 | 0.05 | 0.04 | 72 | 1017.2 |
| 20260906164654 | 83 | 43 | 6.0 | 14.0 | 0.00 | 0.05 | 0.04 | 70 | 1017.2 |
| 20260906164555 | 83 | 334 | 6.0 | 16.0 | 0.00 | 0.05 | 0.04 | 71 | 1017.3 |
| 20260906164452 | 83 | 329 | 6.0 | 16.0 | 0.00 | 0.05 | 0.04 | 71 | 1017.3 |
| 20260906164427 | 83 | 5 | 6.0 | 16.0 | 0.00 | 0.05 | 0.04 | 71 | 1017.3 |
| 20260906164415 | 83 | 26 | 6.0 | 16.0 | 0.00 | 0.05 | 0.04 | 70 | 1017.2 |
| 20260906164152 | 83 | 0 | 5.0 | 16.0 | 0.00 | 0.05 | 0.04 | 71 | 1017.3 |
| 20260906164142 | 83 | 34 | 6.0 | 16.0 | 0.00 | 0.05 | 0.04 | 72 | 1017.2 |
| 20260906164124 | 83 | 0 | 5.0 | 16.0 | 0.00 | 0.05 | 0.04 | 73 | 1017.2 |
| 20260906163931 | 83 | 56 | 6.0 | 16.0 | 0.00 | 0.05 | 0.04 | 71 | 1017.2 |
| 20260906163918 | 83 | 33 | 6.0 | 16.0 | 0.00 | 0.05 | 0.04 | 71 | 1017.2 |
| 20260906163651 | 83 | 5 | 5.0 | 16.0 | 0.00 | 0.05 | 0.04 | 71 | 1017.2 |
| 20260906163629 | 83 | 23 | 5.0 | 12.0 | 0.00 | 0.05 | 0.04 | 71 | 1017.2 |
| 20260906163617 | 83 | 11 | 5.0 | 12.0 | 0.00 | 0.05 | 0.04 | 71 | 1017.2 |
| 20260906163430 | 83 | 349 | 5.0 | 12.0 | 0.00 | 0.05 | 0.04 | 73 | 1017.2 |
| 20260906163418 | 83 | 298 | 5.0 | 12.0 | 0.00 | 0.05 | 0.04 | 72 | 1017.2 |
| 20260906163157 | 83 | 28 | 5.0 | 12.0 | 0.00 | 0.05 | 0.04 | 72 | 1017.2 |
| 20260906163054 | 83 | 32 | 5.0 | 12.0 | 0.00 | 0.05 | 0.04 | 72 | 1017.2 |
| 20260906163025 | 83 | 75 | 5.0 | 11.0 | 0.00 | 0.05 | 0.04 | 71 | 1017.3 |
| 20260906163014 | 83 | 32 | 5.0 | 12.0 | 0.00 | 0.05 | 0.04 | 72 | 1017.2 |
| 20260906162752 | 83 | 12 | 5.0 | 11.0 | 0.00 | 0.05 | 0.04 | 72 | 1017.3 |
| 20260906162653 | 83 | 29 | 5.0 | 11.0 | 0.00 | 0.05 | 0.04 | 72 | 1017.3 |
| 20260906162551 | 83 | 345 | 5.0 | 11.0 | 0.00 | 0.05 | 0.04 | 74 | 1017.3 |
| 20260906162451 | 83 | 55 | 5.0 | 11.0 | 0.00 | 0.05 | 0.04 | 73 | 1017.2 |
| 20260906162356 | 83 | 14 | 5.0 | 10.0 | 0.00 | 0.05 | 0.04 | 72 | 1017.2 |
| 20260906162252 | 82 | 333 | 4.0 | 10.0 | 0.00 | 0.05 | 0.04 | 75 | 1017.3 |
| 20260906162152 | 82 | 9 | 4.0 | 10.0 | 0.00 | 0.05 | 0.04 | 73 | 1017.3 |
| 20260906162049 | 82 | 5 | 4.0 | 10.0 | 0.00 | 0.05 | 0.04 | 74 | 1017.2 |
| 20260906161948 | 82 | 42 | 4.0 | 10.0 | 0.00 | 0.05 | 0.04 | 73 | 1017.3 |
| 20260906161849 | 82 | 333 | 5.0 | 10.0 | 0.00 | 0.05 | 0.04 | 73 | 1017.2 |
| 20260906161749 | 82 | 336 | 4.0 | 13.0 | 0.00 | 0.05 | 0.04 | 74 | 1017.3 |
| 20260906161648 | 82 | 348 | 4.0 | 13.0 | 0.00 | 0.05 | 0.04 | 74 | 1017.3 |
| 20260906161626 | 82 | 348 | 4.0 | 13.0 | 0.00 | 0.05 | 0.04 | 74 | 1017.4 |
| 20260906161620 | 82 | 355 | 4.0 | 13.0 | 0.00 | 0.05 | 0.04 | 73 | 1017.3 |
| 20260906161554 | 82 | 26 | 4.0 | 13.0 | 0.00 | 0.05 | 0.04 | 74 | 1017.3 |
| 20260906161530 | 82 | 17 | 4.0 | 13.0 | 0.00 | 0.05 | 0.04 | 73 | 1017.3 |
| 20260906161148 | 82 | 5 | 4.0 | 13.0 | 0.00 | 0.05 | 0.04 | 73 | 1017.3 |
| 20260906161043 | 82 | 25 | 4.0 | 13.0 | 0.00 | 0.05 | 0.04 | 73 | 1017.3 |
| 20260906160944 | 82 | 24 | 4.0 | 13.0 | 0.00 | 0.05 | 0.04 | 73 | 1017.4 |
| 20260906160843 | 82 | 355 | 4.0 | 13.0 | 0.00 | 0.05 | 0.04 | 75 | 1017.4 |
| 20260906160747 | 82 | 19 | 4.0 | 10.0 | 0.00 | 0.05 | 0.04 | 75 | 1017.4 |
| 20260906160645 | 82 | 63 | 4.0 | 11.0 | 0.00 | 0.05 | 0.04 | 74 | 1017.4 |
| 20260906160545 | 82 | 0 | 4.0 | 11.0 | 0.00 | 0.05 | 0.04 | 74 | 1017.4 |
| 20260906160524 | 82 | 355 | 3.0 | 11.0 | 0.00 | 0.05 | 0.04 | 77 | 1017.4 |
| 20260906160518 | 82 | 17 | 3.0 | 11.0 | 0.00 | 0.05 | 0.04 | 75 | 1017.4 |
| 20260906160454 | 82 | 275 | 4.0 | 11.0 | 0.00 | 0.05 | 0.04 | 74 | 1017.3 |
| 20260906160431 | 82 | 317 | 4.0 | 11.0 | 0.00 | 0.05 | 0.04 | 74 | 1017.3 |
| 20260906160352 | 82 | 355 | 4.0 | 11.0 | 0.00 | 0.05 | 0.04 | 75 | 1017.3 |
| 20260906160231 | 81 | 74 | 3.0 | 10.0 | 0.00 | 0.05 | 0.04 | 76 | 1017.4 |
| 20260906160206 | 82 | 71 | 4.0 | 11.0 | 0.00 | 0.05 | 0.04 | 75 | 1017.4 |
| 20260906160136 | 82 | 13 | 4.0 | 11.0 | 0.00 | 0.05 | 0.04 | 74 | 1017.4 |
| 20260906160110 | 82 | 333 | 3.0 | 11.0 | 0.00 | 0.05 | 0.04 | 74 | 1017.4 |
| 20260906155539 | 81 | 355 | 3.0 | 10.0 | 0.00 | 0.05 | 0.04 | 77 | 1017.4 |
| 20260906155445 | 81 | 304 | 4.0 | 10.0 | 0.00 | 0.05 | 0.04 | 75 | 1017.3 |
| 20260906155436 | 81 | 0 | 3.0 | 10.0 | 0.00 | 0.05 | 0.04 | 76 | 1017.4 |
| 20260906155413 | 81 | 0 | 4.0 | 10.0 | 0.00 | 0.05 | 0.04 | 76 | 1017.3 |
| 20260906155133 | 81 | 0 | 4.0 | 11.0 | 0.00 | 0.05 | 0.04 | 76 | 1017.3 |
| 20260906155032 | 81 | 15 | 4.0 | 11.0 | 0.00 | 0.05 | 0.04 | 79 | 1017.4 |
| 20260906154934 | 80 | 37 | 4.0 | 11.0 | 0.00 | 0.05 | 0.04 | 76 | 1017.3 |
| 20260906154915 | 80 | 344 | 4.0 | 11.0 | 0.00 | 0.05 | 0.04 | 76 | 1017.3 |
| 20260906154856 | 80 | 5 | 4.0 | 11.0 | 0.00 | 0.05 | 0.04 | 76 | 1017.3 |
| 20260906154630 | 80 | 38 | 4.0 | 11.0 | 0.00 | 0.05 | 0.04 | 76 | 1017.3 |
| 20260906154611 | 80 | 5 | 4.0 | 11.0 | 0.00 | 0.05 | 0.04 | 77 | 1017.2 |
| 20260906154555 | 80 | 38 | 4.0 | 11.0 | 0.00 | 0.05 | 0.04 | 77 | 1017.2 |
| 20260906154407 | 80 | 355 | 4.0 | 10.0 | 0.00 | 0.05 | 0.04 | 77 | 1017.2 |
| 20260906154353 | 80 | 339 | 4.0 | 11.0 | 0.00 | 0.05 | 0.04 | 77 | 1017.3 |
| 20260906154126 | 80 | 78 | 3.0 | 10.0 | 0.00 | 0.05 | 0.04 | 77 | 1017.2 |
| 20260906154027 | 80 | 60 | 3.0 | 10.0 | 0.00 | 0.05 | 0.04 | 77 | 1017.2 |
| 20260906153918 | 80 | 329 | 3.0 | 10.0 | 0.00 | 0.05 | 0.04 | 77 | 1017.2 |
| 20260906153821 | 80 | 0 | 4.0 | 9.0 | 0.00 | 0.05 | 0.04 | 77 | 1017.2 |
| 20260906153719 | 80 | 28 | 4.0 | 11.0 | 0.00 | 0.05 | 0.04 | 77 | 1017.2 |
| 20260906153617 | 80 | 40 | 4.0 | 11.0 | 0.00 | 0.05 | 0.04 | 78 | 1017.2 |
| 20260906153517 | 80 | 53 | 4.0 | 11.0 | 0.00 | 0.05 | 0.04 | 78 | 1017.1 |
| 20260906153452 | 80 | 49 | 4.0 | 11.0 | 0.00 | 0.05 | 0.04 | 78 | 1017.2 |
| 20260906153439 | 80 | 80 | 4.0 | 11.0 | 0.00 | 0.05 | 0.04 | 79 | 1017.2 |
| 20260906153251 | 79 | 40 | 4.0 | 11.0 | 0.00 | 0.05 | 0.04 | 77 | 1017.2 |
| 20260906153236 | 79 | 5 | 4.0 | 11.0 | 0.00 | 0.05 | 0.04 | 77 | 1017.1 |
| 20260906153010 | 79 | 336 | 4.0 | 11.0 | 0.00 | 0.05 | 0.04 | 77 | 1017.2 |
| 20260906152910 | 79 | 334 | 4.0 | 11.0 | 0.00 | 0.05 | 0.04 | 76 | 1017.2 |
| 20260906152808 | 80 | 355 | 4.0 | 11.0 | 0.00 | 0.05 | 0.04 | 76 | 1017.2 |
| 20260906152738 | 79 | 80 | 4.0 | 13.0 | 0.00 | 0.05 | 0.04 | 77 | 1017.2 |
| 20260906152714 | 80 | 338 | 4.0 | 13.0 | 0.00 | 0.05 | 0.04 | 77 | 1017.2 |
| 20260906152644 | 80 | 63 | 4.0 | 13.0 | 0.00 | 0.05 | 0.04 | 77 | 1017.2 |
| 20260906152512 | 79 | 68 | 4.0 | 13.0 | 0.00 | 0.05 | 0.04 | 77 | 1017.2 |
| 20260906152444 | 79 | 31 | 4.0 | 13.0 | 0.00 | 0.05 | 0.04 | 77 | 1017.2 |
| 20260906152433 | 79 | 80 | 4.0 | 13.0 | 0.00 | 0.05 | 0.04 | 77 | 1017.2 |
| 20260906152203 | 79 | 53 | 4.0 | 13.0 | 0.00 | 0.05 | 0.04 | 77 | 1017.2 |
| 20260906152108 | 79 | 44 | 4.0 | 13.0 | 0.00 | 0.05 | 0.04 | 78 | 1017.2 |
| 20260906152003 | 79 | 344 | 5.0 | 13.0 | 0.00 | 0.05 | 0.04 | 77 | 1017.2 |
| 20260906151900 | 79 | 355 | 5.0 | 13.0 | 0.00 | 0.05 | 0.04 | 76 | 1017.2 |
| 20260906151806 | 79 | 338 | 4.0 | 13.0 | 0.00 | 0.05 | 0.04 | 76 | 1017.3 |
| 20260906151658 | 79 | 329 | 4.0 | 12.0 | 0.00 | 0.05 | 0.04 | 77 | 1017.2 |
| 20260906151605 | 79 | 350 | 4.0 | 11.0 | 0.00 | 0.05 | 0.04 | 77 | 1017.3 |
| 20260906151501 | 79 | 57 | 4.0 | 11.0 | 0.00 | 0.05 | 0.04 | 77 | 1017.2 |
| 20260906151403 | 79 | 48 | 4.0 | 11.0 | 0.00 | 0.05 | 0.04 | 78 | 1017.3 |
| 20260906151254 | 79 | 5 | 4.0 | 11.0 | 0.00 | 0.05 | 0.04 | 77 | 1017.2 |
| 20260906151155 | 79 | 330 | 4.0 | 11.0 | 0.00 | 0.05 | 0.04 | 78 | 1017.2 |
| 20260906151047 | 79 | 5 | 4.0 | 11.0 | 0.00 | 0.05 | 0.04 | 77 | 1017.2 |
| 20260906150948 | 79 | 324 | 4.0 | 11.0 | 0.00 | 0.05 | 0.04 | 77 | 1017.2 |
| 20260906150848 | 79 | 328 | 4.0 | 11.0 | 0.00 | 0.05 | 0.04 | 78 | 1017.2 |
| 20260906150748 | 79 | 355 | 4.0 | 11.0 | 0.00 | 0.05 | 0.04 | 78 | 1017.2 |
| 20260906150642 | 79 | 71 | 4.0 | 11.0 | 0.00 | 0.05 | 0.04 | 78 | 1017.1 |
| 20260906150542 | 79 | 16 | 4.0 | 11.0 | 0.00 | 0.05 | 0.04 | 80 | 1017.1 |
| 20260906150527 | 78 | 72 | 4.0 | 11.0 | 0.00 | 0.05 | 0.04 | 79 | 1017.1 |
| 20260906150512 | 79 | 64 | 4.0 | 11.0 | 0.00 | 0.05 | 0.04 | 80 | 1017.1 |
| 20260906150242 | 78 | 355 | 4.0 | 11.0 | 0.00 | 0.05 | 0.04 | 79 | 1017.1 |
| 20260906150140 | 78 | 64 | 4.0 | 11.0 | 0.00 | 0.05 | 0.04 | 78 | 1017.2 |
| 20260906150039 | 78 | 319 | 4.0 | 11.0 | 0.00 | 0.05 | 0.04 | 79 | 1017.1 |
| 20260906145940 | 78 | 17 | 4.0 | 12.0 | 0.00 | 0.05 | 0.04 | 79 | 1017.2 |
| 20260906145913 | 78 | 59 | 4.0 | 12.0 | 0.00 | 0.05 | 0.04 | 79 | 1017.2 |
| 20260906145901 | 78 | 0 | 3.0 | 12.0 | 0.00 | 0.05 | 0.04 | 79 | 1017.2 |
| 20260906145719 | 78 | 355 | 4.0 | 12.0 | 0.00 | 0.05 | 0.04 | 80 | 1017.2 |
| 20260906145701 | 78 | 17 | 3.0 | 12.0 | 0.00 | 0.05 | 0.04 | 80 | 1017.2 |
| 20260906145439 | 78 | 60 | 4.0 | 12.0 | 0.00 | 0.05 | 0.04 | 79 | 1017.2 |
| 20260906145337 | 78 | 35 | 4.0 | 12.0 | 0.00 | 0.05 | 0.04 | 81 | 1017.2 |
| 20260906145239 | 78 | 10 | 4.0 | 12.0 | 0.00 | 0.05 | 0.04 | 79 | 1017.2 |
| 20260906145137 | 78 | 10 | 4.0 | 12.0 | 0.00 | 0.05 | 0.04 | 79 | 1017.3 |
| 20260906145101 | 78 | 283 | 4.0 | 11.0 | 0.00 | 0.05 | 0.04 | 80 | 1017.2 |
| 20260906145048 | 78 | 13 | 4.0 | 12.0 | 0.00 | 0.05 | 0.04 | 80 | 1017.2 |
| 20260906145026 | 78 | 62 | 4.0 | 11.0 | 0.00 | 0.05 | 0.04 | 80 | 1017.2 |
| 20260906144900 | 78 | 341 | 4.0 | 11.0 | 0.00 | 0.05 | 0.04 | 80 | 1017.2 |
| 20260906144634 | 78 | 315 | 4.0 | 11.0 | 0.00 | 0.05 | 0.04 | 80 | 1017.2 |
| 20260906144600 | 78 | 325 | 4.0 | 11.0 | 0.00 | 0.05 | 0.04 | 80 | 1017.1 |
| 20260906144551 | 78 | 64 | 4.0 | 11.0 | 0.00 | 0.05 | 0.04 | 80 | 1017.2 |
| 20260906144404 | 78 | 5 | 4.0 | 11.0 | 0.00 | 0.05 | 0.04 | 80 | 1017.2 |
| 20260906144351 | 78 | 44 | 4.0 | 11.0 | 0.00 | 0.05 | 0.04 | 80 | 1017.2 |
| 20260906144201 | 78 | 294 | 5.0 | 12.0 | 0.00 | 0.05 | 0.04 | 80 | 1017.2 |
| 20260906144149 | 78 | 0 | 5.0 | 12.0 | 0.00 | 0.05 | 0.04 | 79 | 1017.2 |
| 20260906143919 | 78 | 267 | 5.0 | 12.0 | 0.00 | 0.05 | 0.04 | 81 | 1017.2 |
| 20260906143902 | 77 | 341 | 5.0 | 13.0 | 0.00 | 0.05 | 0.04 | 81 | 1017.2 |
| 20260906143846 | 78 | 348 | 5.0 | 13.0 | 0.00 | 0.05 | 0.04 | 81 | 1017.2 |
| 20260906143619 | 77 | 26 | 5.0 | 13.0 | 0.00 | 0.05 | 0.04 | 80 | 1017.3 |
| 20260906143519 | 77 | 344 | 5.0 | 13.0 | 0.00 | 0.05 | 0.04 | 80 | 1017.3 |
| 20260906143413 | 77 | 318 | 5.0 | 13.0 | 0.00 | 0.05 | 0.04 | 80 | 1017.3 |
| 20260906143312 | 77 | 65 | 5.0 | 13.0 | 0.00 | 0.05 | 0.04 | 80 | 1017.3 |
| 20260906143252 | 77 | 348 | 4.0 | 13.0 | 0.00 | 0.05 | 0.04 | 80 | 1017.3 |
| 20260906143239 | 77 | 5 | 4.0 | 13.0 | 0.00 | 0.05 | 0.04 | 80 | 1017.3 |
| 20260906143011 | 77 | 313 | 4.0 | 13.0 | 0.00 | 0.05 | 0.04 | 80 | 1017.3 |
| 20260906142901 | 77 | 355 | 4.0 | 13.0 | 0.00 | 0.05 | 0.04 | 80 | 1017.2 |
| 20260906142758 | 77 | 316 | 4.0 | 13.0 | 0.00 | 0.05 | 0.04 | 80 | 1017.1 |
| 20260906142658 | 77 | 323 | 5.0 | 13.0 | 0.00 | 0.05 | 0.04 | 80 | 1017.2 |
| 20260906142558 | 77 | 22 | 5.0 | 13.0 | 0.00 | 0.05 | 0.04 | 80 | 1017.2 |
| 20260906142459 | 77 | 306 | 4.0 | 13.0 | 0.00 | 0.05 | 0.04 | 80 | 1017.3 |
| 20260906142355 | 77 | 63 | 4.0 | 13.0 | 0.00 | 0.05 | 0.04 | 81 | 1017.2 |
| 20260906142256 | 77 | 329 | 4.0 | 13.0 | 0.00 | 0.05 | 0.04 | 81 | 1017.2 |
| 20260906142154 | 77 | 40 | 4.0 | 13.0 | 0.00 | 0.05 | 0.04 | 81 | 1017.1 |
| 20260906142054 | 77 | 329 | 4.0 | 13.0 | 0.00 | 0.05 | 0.04 | 81 | 1017.2 |
| 20260906141952 | 77 | 29 | 5.0 | 13.0 | 0.00 | 0.05 | 0.04 | 80 | 1017.2 |
| 20260906141921 | 77 | 327 | 5.0 | 13.0 | 0.00 | 0.05 | 0.04 | 80 | 1017.2 |
| 20260906141907 | 77 | 310 | 5.0 | 13.0 | 0.00 | 0.05 | 0.04 | 81 | 1017.3 |
| 20260906141647 | 77 | 5 | 4.0 | 10.0 | 0.00 | 0.05 | 0.04 | 80 | 1017.1 |
| 20260906141549 | 77 | 0 | 4.0 | 10.0 | 0.00 | 0.05 | 0.04 | 81 | 1017.2 |
| 20260906141446 | 77 | 329 | 4.0 | 10.0 | 0.00 | 0.05 | 0.04 | 80 | 1017.2 |
| 20260906141410 | 77 | 24 | 4.0 | 10.0 | 0.00 | 0.05 | 0.04 | 80 | 1017.2 |
| 20260906141355 | 77 | 24 | 4.0 | 10.0 | 0.00 | 0.05 | 0.04 | 80 | 1017.1 |
| 20260906141332 | 77 | 14 | 5.0 | 10.0 | 0.00 | 0.05 | 0.04 | 80 | 1017.2 |
| 20260906141208 | 77 | 349 | 5.0 | 10.0 | 0.00 | 0.05 | 0.04 | 80 | 1017.2 |
| 20260906140943 | 77 | 355 | 4.0 | 11.0 | 0.00 | 0.05 | 0.04 | 80 | 1017.2 |
| 20260906140843 | 76 | 338 | 4.0 | 11.0 | 0.00 | 0.05 | 0.04 | 80 | 1017.2 |
| 20260906140741 | 76 | 10 | 5.0 | 11.0 | 0.00 | 0.05 | 0.04 | 80 | 1017.2 |
| 20260906140642 | 76 | 333 | 4.0 | 11.0 | 0.00 | 0.05 | 0.04 | 80 | 1017.2 |
| 20260906140540 | 76 | 355 | 4.0 | 11.0 | 0.00 | 0.05 | 0.04 | 80 | 1017.1 |
| 20260906140439 | 76 | 13 | 4.0 | 11.0 | 0.00 | 0.05 | 0.04 | 80 | 1017.2 |
| 20260906140340 | 76 | 285 | 4.0 | 11.0 | 0.00 | 0.05 | 0.04 | 80 | 1017.1 |
| 20260906140240 | 76 | 316 | 4.0 | 11.0 | 0.00 | 0.05 | 0.04 | 80 | 1017.2 |
| 20260906140139 | 76 | 343 | 4.0 | 11.0 | 0.00 | 0.05 | 0.04 | 80 | 1017.1 |
| 20260906140107 | 76 | 329 | 4.0 | 10.0 | 0.00 | 0.05 | 0.04 | 81 | 1017.1 |
| 20260906140059 | 76 | 279 | 5.0 | 11.0 | 0.00 | 0.05 | 0.04 | 80 | 1017.1 |
| 20260906135836 | 76 | 335 | 4.0 | 10.0 | 0.00 | 0.05 | 0.04 | 81 | 1017.2 |
| 20260906135736 | 76 | 317 | 4.0 | 10.0 | 0.00 | 0.05 | 0.04 | 81 | 1017.2 |
| 20260906135708 | 76 | 297 | 4.0 | 10.0 | 0.00 | 0.05 | 0.04 | 81 | 1017.1 |
| 20260906135659 | 76 | 313 | 4.0 | 10.0 | 0.00 | 0.05 | 0.04 | 81 | 1017.2 |
| 20260906135436 | 76 | 355 | 4.0 | 10.0 | 0.00 | 0.05 | 0.04 | 81 | 1017.2 |
| 20260906135334 | 76 | 339 | 4.0 | 10.0 | 0.00 | 0.05 | 0.04 | 81 | 1017.2 |
| 20260906135235 | 76 | 321 | 4.0 | 10.0 | 0.00 | 0.05 | 0.04 | 81 | 1017.1 |
| 20260906135133 | 76 | 347 | 4.0 | 10.0 | 0.00 | 0.05 | 0.04 | 81 | 1017.1 |
| 20260906135033 | 76 | 0 | 4.0 | 11.0 | 0.00 | 0.05 | 0.04 | 81 | 1017.2 |
| 20260906135008 | 76 | 298 | 4.0 | 12.0 | 0.00 | 0.05 | 0.04 | 81 | 1017.2 |
| 20260906134955 | 76 | 349 | 4.0 | 11.0 | 0.00 | 0.05 | 0.04 | 81 | 1017.1 |
| 20260906134811 | 76 | 355 | 5.0 | 12.0 | 0.00 | 0.05 | 0.04 | 81 | 1017.1 |
| 20260906134754 | 76 | 5 | 4.0 | 12.0 | 0.00 | 0.05 | 0.04 | 81 | 1017.2 |
| 20260906134532 | 76 | 0 | 5.0 | 12.0 | 0.00 | 0.05 | 0.04 | 81 | 1017.2 |
| 20260906134432 | 76 | 346 | 5.0 | 12.0 | 0.00 | 0.05 | 0.04 | 81 | 1017.1 |
| 20260906134329 | 76 | 311 | 5.0 | 12.0 | 0.00 | 0.05 | 0.04 | 81 | 1017.2 |
| 20260906134230 | 76 | 77 | 5.0 | 12.0 | 0.00 | 0.05 | 0.04 | 81 | 1017.2 |
| 20260906134129 | 76 | 315 | 5.0 | 12.0 | 0.00 | 0.05 | 0.04 | 81 | 1017.1 |
| 20260906134029 | 76 | 294 | 5.0 | 12.0 | 0.00 | 0.05 | 0.04 | 81 | 1017.1 |
| 20260906133924 | 75 | 315 | 4.0 | 12.0 | 0.00 | 0.05 | 0.04 | 82 | 1017.2 |
| 20260906133824 | 75 | 293 | 4.0 | 11.0 | 0.00 | 0.05 | 0.04 | 81 | 1017.2 |
| 20260906133724 | 75 | 12 | 5.0 | 11.0 | 0.00 | 0.05 | 0.04 | 81 | 1017.2 |
| 20260906133624 | 75 | 320 | 5.0 | 11.0 | 0.00 | 0.05 | 0.04 | 81 | 1017.1 |
| 20260906133551 | 75 | 298 | 4.0 | 11.0 | 0.00 | 0.05 | 0.04 | 81 | 1017.2 |
| 20260906133542 | 75 | 355 | 5.0 | 11.0 | 0.00 | 0.05 | 0.04 | 82 | 1017.2 |
| 20260906133357 | 75 | 283 | 4.0 | 11.0 | 0.00 | 0.05 | 0.04 | 81 | 1017.3 |
| 20260906133347 | 75 | 0 | 4.0 | 11.0 | 0.00 | 0.05 | 0.04 | 81 | 1017.3 |
| 20260906133123 | 75 | 302 | 4.0 | 11.0 | 0.00 | 0.05 | 0.04 | 81 | 1017.2 |
| 20260906133017 | 75 | 268 | 4.0 | 11.0 | 0.00 | 0.05 | 0.04 | 81 | 1017.3 |
| 20260906132939 | 75 | 331 | 5.0 | 13.0 | 0.00 | 0.05 | 0.04 | 81 | 1017.2 |
| 20260906132926 | 75 | 13 | 4.0 | 11.0 | 0.00 | 0.05 | 0.04 | 81 | 1017.3 |
| 20260906132901 | 75 | 309 | 5.0 | 11.0 | 0.00 | 0.05 | 0.04 | 81 | 1017.2 |
| 20260906132716 | 75 | 323 | 4.0 | 11.0 | 0.00 | 0.05 | 0.04 | 81 | 1017.3 |
| 20260906132648 | 75 | 279 | 4.0 | 10.0 | 0.00 | 0.05 | 0.04 | 81 | 1017.3 |
| 20260906132504 | 75 | 319 | 4.0 | 10.0 | 0.00 | 0.05 | 0.04 | 81 | 1017.3 |
| 20260906132438 | 75 | 331 | 5.0 | 13.0 | 0.00 | 0.05 | 0.04 | 81 | 1017.2 |
| 20260906132417 | 75 | 296 | 5.0 | 11.0 | 0.00 | 0.05 | 0.04 | 81 | 1017.2 |
| 20260906132349 | 75 | 233 | 5.0 | 11.0 | 0.00 | 0.05 | 0.04 | 81 | 1017.2 |
| 20260906132203 | 75 | 331 | 5.0 | 13.0 | 0.00 | 0.05 | 0.04 | 81 | 1017.2 |
| 20260906132100 | 75 | 249 | 5.0 | 13.0 | 0.00 | 0.05 | 0.04 | 81 | 1017.3 |
| 20260906131958 | 75 | 286 | 5.0 | 13.0 | 0.00 | 0.05 | 0.04 | 81 | 1017.2 |
| 20260906131853 | 75 | 303 | 6.0 | 13.0 | 0.00 | 0.05 | 0.04 | 81 | 1017.3 |
| 20260906131751 | 75 | 335 | 5.0 | 13.0 | 0.00 | 0.05 | 0.04 | 81 | 1017.3 |
| 20260906131653 | 75 | 287 | 6.0 | 13.0 | 0.00 | 0.05 | 0.04 | 81 | 1017.2 |
| 20260906131553 | 75 | 288 | 5.0 | 13.0 | 0.00 | 0.05 | 0.04 | 81 | 1017.2 |
| 20260906131455 | 75 | 287 | 5.0 | 13.0 | 0.00 | 0.05 | 0.04 | 82 | 1017.3 |
| 20260906131424 | 75 | 313 | 5.0 | 13.0 | 0.00 | 0.05 | 0.04 | 82 | 1017.3 |
| 20260906131409 | 75 | 311 | 5.0 | 13.0 | 0.00 | 0.05 | 0.04 | 82 | 1017.3 |
| 20260906131147 | 75 | 259 | 5.0 | 13.0 | 0.00 | 0.05 | 0.04 | 82 | 1017.3 |
| 20260906131043 | 75 | 314 | 5.0 | 13.0 | 0.00 | 0.05 | 0.04 | 82 | 1017.3 |
| 20260906130949 | 75 | 284 | 5.0 | 13.0 | 0.00 | 0.05 | 0.04 | 82 | 1017.3 |
| 20260906130844 | 75 | 281 | 5.0 | 13.0 | 0.00 | 0.05 | 0.04 | 82 | 1017.3 |
| 20260906130742 | 75 | 307 | 5.0 | 13.0 | 0.00 | 0.05 | 0.04 | 82 | 1017.3 |
| 20260906130643 | 75 | 258 | 5.0 | 13.0 | 0.00 | 0.05 | 0.04 | 82 | 1017.3 |
| 20260906130541 | 75 | 17 | 5.0 | 13.0 | 0.00 | 0.05 | 0.04 | 83 | 1017.3 |
| 20260906130457 | 75 | 316 | 5.0 | 13.0 | 0.00 | 0.05 | 0.04 | 83 | 1017.3 |
| 20260906130341 | 75 | 317 | 4.0 | 13.0 | 0.00 | 0.05 | 0.04 | 82 | 1017.3 |
| 20260906130241 | 74 | 301 | 4.0 | 13.0 | 0.00 | 0.05 | 0.04 | 83 | 1017.3 |
| 20260906130141 | 74 | 348 | 4.0 | 12.0 | 0.00 | 0.05 | 0.04 | 83 | 1017.3 |
| 20260906130045 | 74 | 332 | 4.0 | 12.0 | 0.00 | 0.05 | 0.04 | 83 | 1017.3 |
| 20260906130010 | 74 | 302 | 4.0 | 12.0 | 0.00 | 0.05 | 0.04 | 83 | 1017.2 |
| 20260906125958 | 74 | 244 | 4.0 | 12.0 | 0.00 | 0.05 | 0.04 | 83 | 1017.2 |
| 20260906125740 | 74 | 245 | 4.0 | 12.0 | 0.00 | 0.05 | 0.04 | 84 | 1017.3 |
| 20260906125708 | 74 | 258 | 3.0 | 8.0 | 0.00 | 0.05 | 0.04 | 84 | 1017.2 |
| 20260906125658 | 74 | 287 | 4.0 | 12.0 | 0.00 | 0.05 | 0.04 | 84 | 1017.3 |
| 20260906125435 | 74 | 281 | 3.0 | 8.0 | 0.00 | 0.05 | 0.04 | 84 | 1017.2 |
| 20260906125334 | 74 | 243 | 3.0 | 8.0 | 0.00 | 0.05 | 0.04 | 84 | 1017.2 |
| 20260906125235 | 73 | 273 | 3.0 | 8.0 | 0.00 | 0.05 | 0.04 | 85 | 1017.2 |
| 20260906125136 | 73 | 294 | 3.0 | 9.0 | 0.00 | 0.05 | 0.04 | 84 | 1017.2 |
| 20260906125036 | 73 | 250 | 3.0 | 9.0 | 0.00 | 0.05 | 0.04 | 84 | 1017.2 |
| 20260906124936 | 73 | 305 | 3.0 | 9.0 | 0.00 | 0.05 | 0.04 | 85 | 1017.2 |
| 20260906124850 | 73 | 217 | 4.0 | 9.0 | 0.00 | 0.05 | 0.04 | 85 | 1017.2 |
| 20260906124836 | 73 | 328 | 4.0 | 9.0 | 0.00 | 0.05 | 0.04 | 85 | 1017.2 |
| 20260906124757 | 73 | 215 | 4.0 | 9.0 | 0.00 | 0.05 | 0.04 | 85 | 1017.2 |
| 20260906124617 | 73 | 209 | 4.0 | 9.0 | 0.00 | 0.05 | 0.04 | 85 | 1017.3 |
| 20260906124603 | 73 | 214 | 4.0 | 9.0 | 0.00 | 0.05 | 0.04 | 85 | 1017.2 |
| 20260906124336 | 73 | 211 | 4.0 | 11.0 | 0.00 | 0.05 | 0.04 | 85 | 1017.2 |
| 20260906124236 | 73 | 224 | 4.0 | 11.0 | 0.00 | 0.05 | 0.04 | 85 | 1017.3 |
| 20260906124136 | 73 | 204 | 4.0 | 11.0 | 0.00 | 0.05 | 0.04 | 85 | 1017.2 |
| 20260906124036 | 73 | 229 | 4.0 | 11.0 | 0.00 | 0.05 | 0.04 | 84 | 1017.2 |
| 20260906123933 | 73 | 246 | 4.0 | 11.0 | 0.00 | 0.05 | 0.04 | 85 | 1017.2 |
| 20260906123833 | 73 | 268 | 4.0 | 11.0 | 0.00 | 0.05 | 0.04 | 85 | 1017.2 |
| 20260906123733 | 73 | 187 | 5.0 | 11.0 | 0.00 | 0.05 | 0.04 | 84 | 1017.2 |
| 20260906123635 | 73 | 229 | 5.0 | 11.0 | 0.00 | 0.05 | 0.04 | 84 | 1017.2 |
| 20260906123555 | 73 | 284 | 4.0 | 11.0 | 0.00 | 0.05 | 0.04 | 85 | 1017.1 |
| 20260906123550 | 73 | 238 | 4.0 | 11.0 | 0.00 | 0.05 | 0.04 | 85 | 1017.1 |
| 20260906123537 | 73 | 229 | 5.0 | 11.0 | 0.00 | 0.05 | 0.04 | 84 | 1017.2 |
| 20260906123516 | 73 | 291 | 4.0 | 11.0 | 0.00 | 0.05 | 0.04 | 84 | 1017.1 |
| 20260906123135 | 73 | 301 | 4.0 | 11.0 | 0.00 | 0.05 | 0.04 | 85 | 1017.1 |
| 20260906123034 | 73 | 225 | 4.0 | 11.0 | 0.00 | 0.05 | 0.04 | 85 | 1017.1 |
| 20260906122934 | 73 | 250 | 4.0 | 9.0 | 0.00 | 0.05 | 0.04 | 85 | 1017.1 |
| 20260906122907 | 73 | 198 | 4.0 | 9.0 | 0.00 | 0.05 | 0.04 | 86 | 1017.1 |
| 20260906122856 | 73 | 226 | 4.0 | 9.0 | 0.00 | 0.05 | 0.04 | 85 | 1017.1 |
| 20260906122629 | 73 | 230 | 4.0 | 9.0 | 0.00 | 0.05 | 0.04 | 86 | 1017.0 |
| 20260906122529 | 73 | 227 | 4.0 | 9.0 | 0.00 | 0.05 | 0.04 | 87 | 1017.1 |
| 20260906122431 | 73 | 213 | 4.0 | 10.0 | 0.00 | 0.05 | 0.04 | 87 | 1017.0 |
| 20260906122356 | 72 | 229 | 4.0 | 11.0 | 0.00 | 0.05 | 0.04 | 87 | 1017.0 |
| 20260906122345 | 72 | 200 | 4.0 | 10.0 | 0.00 | 0.05 | 0.04 | 86 | 1017.0 |
| 20260906122321 | 72 | 218 | 4.0 | 10.0 | 0.00 | 0.05 | 0.04 | 86 | 1017.1 |
| 20260906122207 | 72 | 229 | 4.0 | 11.0 | 0.00 | 0.05 | 0.04 | 87 | 1016.9 |
| 20260906122201 | 72 | 209 | 5.0 | 11.0 | 0.00 | 0.05 | 0.04 | 87 | 1016.9 |
| 20260906122146 | 72 | 218 | 4.0 | 10.0 | 0.00 | 0.05 | 0.04 | 87 | 1017.0 |
| 20260906122000 | 72 | 269 | 4.0 | 11.0 | 0.00 | 0.05 | 0.04 | 87 | 1017.0 |
| 20260906121617 | 72 | 205 | 5.0 | 11.0 | 0.00 | 0.05 | 0.04 | 86 | 1016.9 |
| 20260906121517 | 72 | 233 | 5.0 | 11.0 | 0.00 | 0.05 | 0.04 | 87 | 1016.9 |
| 20260906121457 | 72 | 198 | 4.0 | 11.0 | 0.00 | 0.05 | 0.04 | 87 | 1016.8 |
| 20260906121450 | 72 | 199 | 5.0 | 11.0 | 0.00 | 0.05 | 0.04 | 87 | 1016.9 |
| 20260906121210 | 72 | 210 | 4.0 | 11.0 | 0.00 | 0.05 | 0.04 | 87 | 1016.9 |
| 20260906121111 | 72 | 257 | 4.0 | 11.0 | 0.00 | 0.05 | 0.04 | 87 | 1016.9 |
| 20260906121103 | 73 | 237 | 4.0 | 10.0 | 0.00 | 0.05 | 0.04 | 87 | 1016.8 |
| 20260906121058 | 73 | 223 | 4.0 | 10.0 | 0.00 | 0.05 | 0.04 | 87 | 1016.8 |
| 20260906121052 | 73 | 200 | 4.0 | 10.0 | 0.00 | 0.05 | 0.04 | 87 | 1016.8 |
| 20260906121048 | 73 | 215 | 4.0 | 9.0 | 0.00 | 0.05 | 0.04 | 87 | 1016.7 |
| 20260906121034 | 72 | 217 | 4.0 | 10.0 | 0.00 | 0.05 | 0.04 | 87 | 1016.8 |
| 20260906120853 | 73 | 223 | 4.0 | 10.0 | 0.00 | 0.05 | 0.04 | 87 | 1016.8 |
| 20260906120504 | 73 | 211 | 4.0 | 12.0 | 0.00 | 0.05 | 0.04 | 86 | 1016.8 |
| 20260906120436 | 73 | 220 | 4.0 | 12.0 | 0.00 | 0.05 | 0.04 | 86 | 1016.7 |
| 20260906120424 | 73 | 236 | 4.0 | 12.0 | 0.00 | 0.05 | 0.04 | 86 | 1016.7 |
| 20260906120231 | 73 | 236 | 4.0 | 12.0 | 0.00 | 0.05 | 0.04 | 86 | 1016.7 |
| 20260906120219 | 73 | 218 | 4.0 | 12.0 | 0.00 | 0.05 | 0.04 | 86 | 1016.7 |
| 20260906115955 | 73 | 231 | 4.0 | 12.0 | 0.00 | 0.05 | 0.04 | 86 | 1016.7 |
| 20260906115856 | 73 | 212 | 4.0 | 12.0 | 0.00 | 0.05 | 0.04 | 86 | 1016.5 |
| 20260906115754 | 73 | 211 | 4.0 | 12.0 | 0.00 | 0.05 | 0.04 | 86 | 1016.5 |
| 20260906115643 | 73 | 227 | 4.0 | 12.0 | 0.00 | 0.05 | 0.04 | 86 | 1016.7 |
| 20260906115544 | 73 | 231 | 4.0 | 12.0 | 0.00 | 0.05 | 0.04 | 86 | 1016.5 |
| 20260906115444 | 73 | 205 | 4.0 | 8.0 | 0.00 | 0.05 | 0.04 | 86 | 1016.7 |
| 20260906115357 | 73 | 225 | 4.0 | 8.0 | 0.00 | 0.05 | 0.04 | 86 | 1016.7 |
| 20260906115316 | 73 | 225 | 4.0 | 7.0 | 0.00 | 0.05 | 0.04 | 86 | 1016.7 |
| 20260906115306 | 73 | 214 | 4.0 | 8.0 | 0.00 | 0.05 | 0.04 | 86 | 1016.5 |
| 20260906115054 | 73 | 234 | 4.0 | 7.0 | 0.00 | 0.05 | 0.04 | 86 | 1016.7 |
| 20260906115050 | 73 | 251 | 4.0 | 7.0 | 0.00 | 0.05 | 0.04 | 87 | 1016.7 |
| 20260906115040 | 73 | 232 | 4.0 | 7.0 | 0.00 | 0.05 | 0.04 | 86 | 1016.7 |
| 20260906115017 | 73 | 218 | 4.0 | 7.0 | 0.00 | 0.05 | 0.04 | 86 | 1016.7 |
| 20260906114627 | 73 | 217 | 4.0 | 7.0 | 0.00 | 0.05 | 0.04 | 87 | 1016.5 |
| 20260906114527 | 72 | 236 | 4.0 | 7.0 | 0.00 | 0.05 | 0.04 | 87 | 1016.7 |
| 20260906114507 | 72 | 231 | 4.0 | 8.0 | 0.00 | 0.05 | 0.04 | 87 | 1016.7 |
| 20260906114454 | 72 | 229 | 4.0 | 7.0 | 0.00 | 0.05 | 0.04 | 87 | 1016.5 |
| 20260906114228 | 72 | 214 | 4.0 | 8.0 | 0.00 | 0.05 | 0.04 | 87 | 1016.5 |
| 20260906114118 | 72 | 202 | 4.0 | 8.0 | 0.00 | 0.05 | 0.04 | 87 | 1016.7 |
| 20260906114017 | 72 | 207 | 4.0 | 9.0 | 0.00 | 0.05 | 0.04 | 87 | 1016.7 |
| 20260906113950 | 71 | 212 | 4.0 | 9.0 | 0.00 | 0.05 | 0.04 | 88 | 1016.7 |
| 20260906113940 | 71 | 285 | 4.0 | 9.0 | 0.00 | 0.05 | 0.04 | 87 | 1016.5 |
| 20260906113753 | 71 | 227 | 4.0 | 9.0 | 0.00 | 0.05 | 0.04 | 88 | 1016.5 |
| 20260906113740 | 71 | 205 | 4.0 | 9.0 | 0.00 | 0.05 | 0.04 | 88 | 1016.5 |
| 20260906113510 | 71 | 209 | 4.0 | 9.0 | 0.00 | 0.05 | 0.04 | 88 | 1016.5 |
| 20260906113412 | 71 | 217 | 4.0 | 9.0 | 0.00 | 0.05 | 0.04 | 88 | 1016.5 |
| 20260906113311 | 71 | 198 | 4.0 | 10.0 | 0.00 | 0.05 | 0.04 | 88 | 1016.5 |
| 20260906113212 | 71 | 234 | 4.0 | 10.0 | 0.00 | 0.05 | 0.04 | 89 | 1016.5 |
| 20260906113105 | 71 | 257 | 4.0 | 10.0 | 0.00 | 0.05 | 0.04 | 89 | 1016.4 |
| 20260906113006 | 71 | 265 | 4.0 | 10.0 | 0.00 | 0.05 | 0.04 | 89 | 1016.4 |
| 20260906112905 | 71 | 216 | 4.0 | 10.0 | 0.00 | 0.05 | 0.04 | 90 | 1016.4 |
| 20260906112806 | 71 | 228 | 4.0 | 10.0 | 0.00 | 0.05 | 0.04 | 90 | 1016.4 |
| 20260906112706 | 71 | 202 | 4.0 | 10.0 | 0.00 | 0.05 | 0.04 | 89 | 1016.4 |
| 20260906112551 | 71 | 227 | 4.0 | 10.0 | 0.00 | 0.05 | 0.04 | 89 | 1016.4 |
| 20260906112450 | 71 | 213 | 4.0 | 11.0 | 0.00 | 0.05 | 0.04 | 89 | 1016.4 |
| 20260906112351 | 71 | 302 | 5.0 | 11.0 | 0.00 | 0.05 | 0.04 | 89 | 1016.4 |
| 20260906112251 | 71 | 236 | 4.0 | 11.0 | 0.00 | 0.05 | 0.04 | 89 | 1016.3 |
| 20260906112218 | 71 | 233 | 4.0 | 11.0 | 0.00 | 0.05 | 0.04 | 89 | 1016.4 |
| 20260906112209 | 71 | 202 | 4.0 | 11.0 | 0.00 | 0.05 | 0.04 | 89 | 1016.3 |
| 20260906111947 | 71 | 215 | 4.0 | 11.0 | 0.00 | 0.05 | 0.04 | 89 | 1016.3 |
| 20260906111846 | 71 | 223 | 4.0 | 11.0 | 0.00 | 0.05 | 0.04 | 89 | 1016.3 |
| 20260906111748 | 71 | 208 | 4.0 | 11.0 | 0.00 | 0.05 | 0.04 | 89 | 1016.3 |
| 20260906111646 | 71 | 217 | 5.0 | 11.0 | 0.00 | 0.05 | 0.04 | 89 | 1016.3 |
| 20260906111542 | 71 | 235 | 5.0 | 11.0 | 0.00 | 0.05 | 0.04 | 89 | 1016.3 |
| 20260906111439 | 71 | 246 | 5.0 | 10.0 | 0.00 | 0.05 | 0.04 | 89 | 1016.3 |
| 20260906111340 | 71 | 214 | 4.0 | 10.0 | 0.00 | 0.05 | 0.04 | 88 | 1016.2 |
| 20260906111239 | 71 | 207 | 4.0 | 10.0 | 0.00 | 0.05 | 0.04 | 89 | 1016.2 |
| 20260906111140 | 71 | 201 | 5.0 | 11.0 | 0.00 | 0.05 | 0.04 | 88 | 1016.1 |
| 20260906111032 | 71 | 227 | 5.0 | 11.0 | 0.00 | 0.05 | 0.04 | 88 | 1016.3 |
| 20260906111008 | 71 | 234 | 5.0 | 11.0 | 0.00 | 0.05 | 0.04 | 88 | 1016.2 |
| 20260906110955 | 71 | 226 | 4.0 | 11.0 | 0.00 | 0.05 | 0.04 | 88 | 1016.2 |
| 20260906110729 | 71 | 218 | 5.0 | 11.0 | 0.00 | 0.05 | 0.04 | 88 | 1016.2 |
| 20260906110630 | 71 | 228 | 5.0 | 11.0 | 0.00 | 0.05 | 0.04 | 88 | 1016.1 |
| 20260906110523 | 71 | 207 | 4.0 | 11.0 | 0.00 | 0.05 | 0.04 | 88 | 1016.1 |
| 20260906110422 | 71 | 194 | 4.0 | 11.0 | 0.00 | 0.05 | 0.04 | 88 | 1016.1 |
| 20260906110401 | 71 | 274 | 4.0 | 11.0 | 0.00 | 0.05 | 0.04 | 88 | 1016.2 |
| 20260906110349 | 71 | 242 | 4.0 | 11.0 | 0.00 | 0.05 | 0.04 | 88 | 1016.1 |
| 20260906110125 | 71 | 209 | 4.0 | 11.0 | 0.00 | 0.05 | 0.04 | 88 | 1016.1 |
| 20260906110018 | 71 | 213 | 4.0 | 11.0 | 0.00 | 0.05 | 0.04 | 88 | 1016.0 |
| 20260906105925 | 71 | 211 | 5.0 | 11.0 | 0.00 | 0.05 | 0.04 | 89 | 1016.1 |
| 20260906105819 | 71 | 219 | 5.0 | 11.0 | 0.00 | 0.05 | 0.04 | 89 | 1016.0 |
| 20260906105714 | 71 | 225 | 5.0 | 11.0 | 0.00 | 0.05 | 0.04 | 89 | 1016.0 |
| 20260906105619 | 71 | 200 | 5.0 | 11.0 | 0.00 | 0.05 | 0.04 | 89 | 1016.0 |
| 20260906105515 | 71 | 215 | 5.0 | 11.0 | 0.00 | 0.05 | 0.04 | 89 | 1016.0 |
| 20260906105457 | 71 | 217 | 5.0 | 11.0 | 0.00 | 0.05 | 0.04 | 89 | 1016.1 |
| 20260906105451 | 71 | 263 | 5.0 | 10.0 | 0.00 | 0.05 | 0.04 | 89 | 1016.1 |
| 20260906105436 | 71 | 217 | 5.0 | 11.0 | 0.00 | 0.05 | 0.04 | 89 | 1016.0 |
| 20260906105410 | 71 | 210 | 5.0 | 11.0 | 0.00 | 0.05 | 0.04 | 89 | 1016.1 |
| 20260906105038 | 71 | 225 | 5.0 | 10.0 | 0.00 | 0.05 | 0.04 | 89 | 1016.1 |
| 20260906105027 | 71 | 219 | 5.0 | 10.0 | 0.00 | 0.05 | 0.04 | 89 | 1016.1 |
| 20260906104803 | 71 | 221 | 5.0 | 10.0 | 0.00 | 0.05 | 0.04 | 89 | 1016.2 |
| 20260906104704 | 71 | 219 | 5.0 | 10.0 | 0.00 | 0.05 | 0.04 | 88 | 1016.1 |
| 20260906104633 | 71 | 208 | 5.0 | 10.0 | 0.00 | 0.05 | 0.04 | 88 | 1016.1 |
| 20260906104501 | 71 | 211 | 5.0 | 10.0 | 0.00 | 0.05 | 0.04 | 88 | 1016.0 |
| 20260906104405 | 71 | 213 | 5.0 | 10.0 | 0.00 | 0.05 | 0.04 | 88 | 1016.1 |
| 20260906104319 | 71 | 199 | 5.0 | 10.0 | 0.00 | 0.05 | 0.04 | 88 | 1016.1 |
| 20260906104159 | 70 | 225 | 4.0 | 10.0 | 0.00 | 0.05 | 0.04 | 88 | 1016.1 |
| 20260906104100 | 70 | 213 | 5.0 | 11.0 | 0.00 | 0.05 | 0.04 | 89 | 1016.0 |
| 20260906104033 | 70 | 209 | 5.0 | 12.0 | 0.00 | 0.05 | 0.04 | 89 | 1016.0 |
| 20260906104020 | 70 | 212 | 5.0 | 11.0 | 0.00 | 0.05 | 0.04 | 89 | 1016.0 |
| 20260906103955 | 70 | 214 | 5.0 | 12.0 | 0.00 | 0.05 | 0.04 | 89 | 1016.0 |
| 20260906103830 | 70 | 212 | 5.0 | 12.0 | 0.00 | 0.05 | 0.04 | 89 | 1015.9 |
| 20260906103553 | 71 | 216 | 5.0 | 12.0 | 0.00 | 0.05 | 0.04 | 89 | 1016.0 |
| 20260906103452 | 71 | 221 | 5.0 | 12.0 | 0.00 | 0.05 | 0.04 | 89 | 1015.9 |
| 20260906103430 | 71 | 225 | 5.0 | 12.0 | 0.00 | 0.05 | 0.04 | 89 | 1016.1 |
| 20260906103418 | 71 | 215 | 5.0 | 12.0 | 0.00 | 0.05 | 0.04 | 89 | 1015.9 |
| 20260906103149 | 71 | 218 | 5.0 | 12.0 | 0.00 | 0.05 | 0.04 | 89 | 1016.0 |
| 20260906103050 | 71 | 214 | 4.0 | 12.0 | 0.00 | 0.05 | 0.04 | 89 | 1015.9 |
| 20260906103038 | 71 | 220 | 4.0 | 12.0 | 0.00 | 0.05 | 0.04 | 88 | 1016.0 |
| 20260906103028 | 71 | 215 | 4.0 | 11.0 | 0.00 | 0.05 | 0.04 | 89 | 1016.0 |
| 20260906102748 | 71 | 211 | 4.0 | 12.0 | 0.00 | 0.05 | 0.04 | 88 | 1016.0 |
| 20260906102737 | 71 | 208 | 4.0 | 12.0 | 0.00 | 0.05 | 0.04 | 88 | 1016.0 |
| 20260906102725 | 71 | 222 | 4.0 | 12.0 | 0.00 | 0.05 | 0.04 | 88 | 1016.1 |
| 20260906102451 | 71 | 221 | 4.0 | 12.0 | 0.00 | 0.05 | 0.04 | 88 | 1016.0 |
| 20260906102346 | 71 | 221 | 4.0 | 13.0 | 0.00 | 0.05 | 0.04 | 88 | 1016.0 |
| 20260906102247 | 71 | 202 | 5.0 | 13.0 | 0.00 | 0.05 | 0.04 | 88 | 1016.0 |
| 20260906102143 | 71 | 226 | 5.0 | 15.0 | 0.00 | 0.05 | 0.04 | 88 | 1016.0 |
| 20260906102109 | 71 | 215 | 5.0 | 15.0 | 0.00 | 0.05 | 0.04 | 88 | 1015.9 |
| 20260906102038 | 71 | 215 | 5.0 | 15.0 | 0.00 | 0.05 | 0.04 | 88 | 1015.9 |
| 20260906101939 | 71 | 234 | 5.0 | 15.0 | 0.00 | 0.05 | 0.04 | 88 | 1016.0 |
| 20260906101838 | 71 | 221 | 5.0 | 15.0 | 0.00 | 0.05 | 0.04 | 88 | 1015.9 |
| 20260906101740 | 71 | 206 | 6.0 | 16.0 | 0.00 | 0.05 | 0.04 | 87 | 1015.9 |
| 20260906101637 | 71 | 217 | 6.0 | 16.0 | 0.00 | 0.05 | 0.04 | 87 | 1016.0 |
| 20260906101532 | 71 | 207 | 6.0 | 16.0 | 0.00 | 0.05 | 0.04 | 87 | 1015.9 |
| 20260906101430 | 71 | 229 | 6.0 | 16.0 | 0.00 | 0.05 | 0.04 | 87 | 1016.0 |
| 20260906101332 | 71 | 219 | 6.0 | 16.0 | 0.00 | 0.05 | 0.04 | 87 | 1016.0 |
| 20260906101322 | 71 | 218 | 6.0 | 16.0 | 0.00 | 0.05 | 0.04 | 87 | 1016.0 |
| 20260906101307 | 71 | 219 | 6.0 | 16.0 | 0.00 | 0.05 | 0.04 | 87 | 1016.0 |
| 20260906101041 | 71 | 219 | 6.0 | 16.0 | 0.00 | 0.05 | 0.04 | 87 | 1016.0 |
| 20260906100932 | 71 | 198 | 6.0 | 16.0 | 0.00 | 0.05 | 0.04 | 87 | 1016.0 |
| 20260906100926 | 71 | 223 | 5.0 | 15.0 | 0.00 | 0.05 | 0.04 | 88 | 1016.0 |
| 20260906100903 | 71 | 230 | 5.0 | 15.0 | 0.00 | 0.05 | 0.04 | 88 | 1016.0 |
| 20260906100836 | 71 | 227 | 6.0 | 16.0 | 0.00 | 0.05 | 0.04 | 87 | 1016.0 |
| 20260906100822 | 71 | 230 | 5.0 | 15.0 | 0.00 | 0.05 | 0.04 | 88 | 1016.0 |
| 20260906100759 | 71 | 186 | 5.0 | 15.0 | 0.00 | 0.05 | 0.04 | 87 | 1016.1 |
| 20260906100732 | 71 | 215 | 5.0 | 15.0 | 0.00 | 0.05 | 0.04 | 87 | 1016.0 |
| 20260906100413 | 71 | 229 | 5.0 | 15.0 | 0.00 | 0.05 | 0.04 | 88 | 1016.0 |
| 20260906100358 | 71 | 212 | 5.0 | 15.0 | 0.00 | 0.05 | 0.04 | 88 | 1016.0 |
| 20260906100126 | 71 | 214 | 5.0 | 15.0 | 0.00 | 0.05 | 0.04 | 88 | 1016.0 |
| 20260906100044 | 71 | 198 | 5.0 | 15.0 | 0.00 | 0.05 | 0.04 | 88 | 1015.9 |
| 20260906095939 | 71 | 212 | 5.0 | 14.0 | 0.00 | 0.05 | 0.04 | 88 | 1015.9 |
| 20260906095925 | 71 | 210 | 5.0 | 14.0 | 0.00 | 0.05 | 0.04 | 88 | 1016.0 |
| 20260906095855 | 71 | 234 | 5.0 | 14.0 | 0.00 | 0.05 | 0.04 | 88 | 1016.0 |
| 20260906095625 | 71 | 217 | 5.0 | 14.0 | 0.00 | 0.05 | 0.04 | 88 | 1016.0 |
| 20260906095527 | 71 | 227 | 4.0 | 14.0 | 0.00 | 0.05 | 0.04 | 88 | 1016.0 |
| 20260906095429 | 71 | 251 | 4.0 | 14.0 | 0.00 | 0.05 | 0.04 | 88 | 1016.0 |
| 20260906095327 | 71 | 216 | 4.0 | 14.0 | 0.00 | 0.05 | 0.04 | 88 | 1016.0 |
| 20260906095316 | 71 | 215 | 4.0 | 12.0 | 0.00 | 0.05 | 0.04 | 88 | 1016.0 |
| 20260906095249 | 71 | 244 | 4.0 | 14.0 | 0.00 | 0.05 | 0.04 | 88 | 1016.0 |
| 20260906095213 | 71 | 215 | 4.0 | 13.0 | 0.00 | 0.05 | 0.04 | 88 | 1016.1 |
| 20260906094921 | 71 | 228 | 5.0 | 10.0 | 0.00 | 0.05 | 0.04 | 88 | 1016.0 |
| 20260906094823 | 71 | 215 | 5.0 | 10.0 | 0.00 | 0.05 | 0.04 | 88 | 1016.1 |
| 20260906094719 | 71 | 210 | 5.0 | 11.0 | 0.00 | 0.05 | 0.04 | 88 | 1016.0 |
| 20260906094622 | 71 | 206 | 5.0 | 11.0 | 0.00 | 0.05 | 0.04 | 87 | 1016.1 |
| 20260906094530 | 71 | 211 | 5.0 | 11.0 | 0.00 | 0.05 | 0.04 | 88 | 1016.2 |
| 20260906094427 | 71 | 193 | 5.0 | 11.0 | 0.00 | 0.05 | 0.04 | 88 | 1016.1 |
| 20260906094409 | 71 | 209 | 5.0 | 11.0 | 0.00 | 0.05 | 0.04 | 88 | 1016.2 |
| 20260906094348 | 71 | 202 | 5.0 | 11.0 | 0.00 | 0.05 | 0.04 | 88 | 1016.1 |
| 20260906094325 | 71 | 205 | 5.0 | 11.0 | 0.00 | 0.05 | 0.04 | 88 | 1016.2 |
| 20260906094019 | 71 | 205 | 5.0 | 11.0 | 0.00 | 0.05 | 0.04 | 88 | 1016.2 |
| 20260906093920 | 71 | 209 | 5.0 | 11.0 | 0.00 | 0.05 | 0.04 | 88 | 1016.3 |
| 20260906093819 | 71 | 231 | 4.0 | 11.0 | 0.00 | 0.05 | 0.04 | 88 | 1016.2 |
| 20260906093808 | 71 | 215 | 4.0 | 7.0 | 0.00 | 0.05 | 0.04 | 87 | 1016.0 |
| 20260906093806 | 71 | 209 | 4.0 | 8.0 | 0.00 | 0.05 | 0.04 | 87 | 1016.3 |
| 20260906093758 | 71 | 192 | 4.0 | 8.0 | 0.00 | 0.05 | 0.04 | 88 | 1016.2 |
| 20260906093748 | 71 | 209 | 4.0 | 8.0 | 0.00 | 0.05 | 0.04 | 88 | 1016.3 |
| 20260906093728 | 71 | 196 | 4.0 | 8.0 | 0.00 | 0.05 | 0.04 | 87 | 1016.2 |
| 20260906093715 | 71 | 213 | 4.0 | 8.0 | 0.00 | 0.05 | 0.04 | 88 | 1016.1 |
| 20260906093708 | 71 | 207 | 4.0 | 6.0 | 0.00 | 0.05 | 0.04 | 88 | 1016.1 |
| 20260906093703 | 71 | 202 | 4.0 | 7.0 | 0.00 | 0.05 | 0.04 | 87 | 1016.1 |
| 20260906093556 | 71 | 206 | 4.0 | 8.0 | 0.00 | 0.05 | 0.04 | 88 | 1016.2 |
| 20260906093535 | 71 | 219 | 4.0 | 8.0 | 0.00 | 0.05 | 0.04 | 88 | 1016.2 |
| 20260906093226 | 71 | 215 | 4.0 | 8.0 | 0.00 | 0.05 | 0.04 | 88 | 1016.2 |
| 20260906093039 | 71 | 220 | 4.0 | 8.0 | 0.00 | 0.05 | 0.04 | 88 | 1016.1 |
| 20260906092726 | 71 | 212 | 4.0 | 6.0 | 0.00 | 0.05 | 0.04 | 88 | 1016.0 |
| 20260906092705 | 71 | 206 | 4.0 | 6.0 | 0.00 | 0.05 | 0.04 | 87 | 1016.0 |
| 20260906092316 | 71 | 205 | 4.0 | 7.0 | 0.00 | 0.05 | 0.04 | 87 | 1016.1 |
| 20260906092215 | 71 | 202 | 4.0 | 7.0 | 0.00 | 0.05 | 0.04 | 87 | 1016.0 |
| 20260906092115 | 71 | 194 | 4.0 | 7.0 | 0.00 | 0.05 | 0.04 | 87 | 1016.0 |
| 20260906092016 | 71 | 185 | 3.0 | 7.0 | 0.00 | 0.05 | 0.04 | 86 | 1016.0 |
| 20260906091916 | 71 | 208 | 3.0 | 7.0 | 0.00 | 0.05 | 0.04 | 86 | 1016.1 |
| 20260906091812 | 71 | 205 | 4.0 | 7.0 | 0.00 | 0.05 | 0.04 | 86 | 1016.0 |
| 20260906091713 | 71 | 212 | 4.0 | 7.0 | 0.00 | 0.05 | 0.04 | 86 | 1016.0 |
| 20260906091611 | 71 | 219 | 3.0 | 7.0 | 0.00 | 0.05 | 0.04 | 86 | 1016.0 |
| 20260906091514 | 71 | 204 | 3.0 | 7.0 | 0.00 | 0.05 | 0.04 | 86 | 1016.0 |
| 20260906091503 | 71 | 236 | 3.0 | 6.0 | 0.00 | 0.05 | 0.04 | 86 | 1016.0 |
| 20260906091446 | 71 | 222 | 3.0 | 7.0 | 0.00 | 0.05 | 0.04 | 86 | 1016.0 |
| 20260906091421 | 71 | 219 | 3.0 | 7.0 | 0.00 | 0.05 | 0.04 | 86 | 1015.9 |
| 20260906091251 | 71 | 215 | 3.0 | 6.0 | 0.00 | 0.05 | 0.04 | 86 | 1015.9 |
| 20260906091011 | 71 | 206 | 3.0 | 7.0 | 0.00 | 0.05 | 0.04 | 86 | 1015.9 |
| 20260906090945 | 71 | 209 | 3.0 | 7.0 | 0.00 | 0.05 | 0.04 | 86 | 1015.9 |
| 20260906090933 | 71 | 278 | 3.0 | 7.0 | 0.00 | 0.05 | 0.04 | 86 | 1016.0 |
| 20260906090711 | 71 | 225 | 3.0 | 7.0 | 0.00 | 0.05 | 0.04 | 86 | 1016.1 |
| 20260906090609 | 71 | 209 | 3.0 | 7.0 | 0.00 | 0.05 | 0.04 | 86 | 1016.0 |
| 20260906090543 | 71 | 202 | 3.0 | 7.0 | 0.00 | 0.05 | 0.04 | 85 | 1016.0 |
| 20260906090417 | 71 | 202 | 3.0 | 7.0 | 0.00 | 0.05 | 0.04 | 86 | 1016.0 |
| 20260906090311 | 71 | 208 | 3.0 | 7.0 | 0.00 | 0.05 | 0.04 | 86 | 1015.9 |
| 20260906090226 | 71 | 191 | 3.0 | 7.0 | 0.00 | 0.05 | 0.04 | 85 | 1016.1 |
| 20260906090216 | 71 | 208 | 3.0 | 7.0 | 0.00 | 0.05 | 0.04 | 86 | 1016.0 |
| 20260906090207 | 71 | 221 | 3.0 | 9.0 | 0.00 | 0.05 | 0.04 | 85 | 1016.0 |
| 20260906090149 | 71 | 215 | 3.0 | 7.0 | 0.00 | 0.05 | 0.04 | 86 | 1016.0 |
| 20260906085811 | 71 | 213 | 3.0 | 9.0 | 0.00 | 0.05 | 0.04 | 85 | 1016.0 |
| 20260906085711 | 71 | 233 | 3.0 | 9.0 | 0.00 | 0.05 | 0.04 | 85 | 1016.0 |
| 20260906085610 | 71 | 216 | 3.0 | 9.0 | 0.00 | 0.05 | 0.04 | 86 | 1016.1 |
| 20260906085511 | 71 | 213 | 3.0 | 9.0 | 0.00 | 0.05 | 0.04 | 85 | 1016.0 |
| 20260906085410 | 71 | 208 | 3.0 | 9.0 | 0.00 | 0.05 | 0.04 | 86 | 1016.1 |
| 20260906085312 | 71 | 210 | 3.0 | 9.0 | 0.00 | 0.05 | 0.04 | 87 | 1016.1 |
| 20260906085208 | 71 | 184 | 3.0 | 9.0 | 0.00 | 0.05 | 0.04 | 87 | 1016.1 |
| 20260906085152 | 71 | 192 | 3.0 | 9.0 | 0.00 | 0.05 | 0.04 | 88 | 1016.1 |
| 20260906085138 | 71 | 161 | 3.0 | 9.0 | 0.00 | 0.05 | 0.04 | 88 | 1016.0 |
| 20260906084907 | 71 | 221 | 3.0 | 8.0 | 0.00 | 0.05 | 0.04 | 90 | 1016.0 |
| 20260906084849 | 71 | 220 | 3.0 | 7.0 | 0.00 | 0.05 | 0.04 | 90 | 1016.1 |
| 20260906084837 | 71 | 211 | 3.0 | 8.0 | 0.00 | 0.05 | 0.04 | 90 | 1016.1 |
| 20260906084610 | 71 | 220 | 3.0 | 9.0 | 0.00 | 0.05 | 0.04 | 90 | 1016.1 |
| 20260906084506 | 71 | 217 | 3.0 | 9.0 | 0.00 | 0.05 | 0.04 | 90 | 1016.1 |
| 20260906084402 | 71 | 159 | 3.0 | 9.0 | 0.00 | 0.05 | 0.04 | 91 | 1016.0 |
| 20260906084303 | 71 | 204 | 3.0 | 9.0 | 0.00 | 0.05 | 0.04 | 91 | 1016.1 |
| 20260906084202 | 71 | 229 | 3.0 | 9.0 | 0.00 | 0.05 | 0.04 | 91 | 1016.1 |
| 20260906084103 | 71 | 213 | 3.0 | 9.0 | 0.00 | 0.05 | 0.04 | 91 | 1016.0 |
| 20260906083958 | 71 | 202 | 3.0 | 9.0 | 0.00 | 0.05 | 0.04 | 91 | 1016.0 |
| 20260906083857 | 71 | 213 | 3.0 | 9.0 | 0.00 | 0.05 | 0.04 | 91 | 1016.0 |
| 20260906083755 | 71 | 218 | 3.0 | 9.0 | 0.00 | 0.05 | 0.04 | 91 | 1016.1 |
| 20260906083654 | 71 | 210 | 3.0 | 9.0 | 0.00 | 0.05 | 0.04 | 91 | 1016.0 |
| 20260906083612 | 71 | 213 | 4.0 | 10.0 | 0.00 | 0.05 | 0.04 | 92 | 1016.0 |
| 20260906083600 | 71 | 215 | 3.0 | 10.0 | 0.00 | 0.05 | 0.04 | 91 | 1016.0 |
| 20260906083535 | 71 | 224 | 3.0 | 10.0 | 0.00 | 0.05 | 0.04 | 92 | 1015.9 |
| 20260906083413 | 71 | 225 | 4.0 | 10.0 | 0.00 | 0.05 | 0.04 | 92 | 1016.0 |
| 20260906083150 | 71 | 219 | 4.0 | 10.0 | 0.00 | 0.05 | 0.04 | 92 | 1016.0 |
| 20260906083047 | 71 | 219 | 4.0 | 10.0 | 0.00 | 0.05 | 0.04 | 92 | 1016.0 |
| 20260906082940 | 71 | 217 | 4.0 | 10.0 | 0.00 | 0.05 | 0.04 | 92 | 1015.9 |
| 20260906082923 | 71 | 197 | 4.0 | 11.0 | 0.00 | 0.05 | 0.04 | 92 | 1015.9 |
| 20260906082918 | 71 | 198 | 4.0 | 11.0 | 0.00 | 0.05 | 0.04 | 92 | 1015.9 |
| 20260906082912 | 71 | 227 | 4.0 | 11.0 | 0.00 | 0.05 | 0.04 | 93 | 1015.9 |
| 20260906082908 | 71 | 257 | 4.0 | 11.0 | 0.00 | 0.05 | 0.04 | 93 | 1015.9 |
| 20260906082903 | 71 | 273 | 4.0 | 11.0 | 0.00 | 0.05 | 0.04 | 93 | 1015.9 |
| 20260906082850 | 71 | 263 | 4.0 | 10.0 | 0.00 | 0.05 | 0.04 | 92 | 1016.0 |
| 20260906082829 | 71 | 221 | 4.0 | 10.0 | 0.00 | 0.05 | 0.04 | 92 | 1016.0 |
| 20260906082530 | 71 | 215 | 4.0 | 11.0 | 0.00 | 0.05 | 0.04 | 92 | 1016.0 |
| 20260906082027 | 71 | 222 | 4.0 | 11.0 | 0.00 | 0.05 | 0.04 | 93 | 1016.0 |
| 20260906081923 | 71 | 227 | 4.0 | 11.0 | 0.00 | 0.05 | 0.04 | 93 | 1016.0 |
| 20260906081820 | 71 | 221 | 4.0 | 11.0 | 0.00 | 0.05 | 0.04 | 93 | 1016.0 |
| 20260906081721 | 71 | 236 | 4.0 | 11.0 | 0.00 | 0.05 | 0.04 | 93 | 1016.0 |
| 20260906081622 | 71 | 209 | 3.0 | 9.0 | 0.00 | 0.05 | 0.04 | 93 | 1016.0 |
| 20260906081520 | 71 | 218 | 3.0 | 9.0 | 0.00 | 0.05 | 0.04 | 93 | 1016.0 |
| 20260906081414 | 71 | 212 | 3.0 | 9.0 | 0.00 | 0.05 | 0.04 | 93 | 1016.0 |
| 20260906081314 | 71 | 213 | 3.0 | 9.0 | 0.00 | 0.05 | 0.04 | 94 | 1015.9 |
| 20260906081214 | 71 | 211 | 3.0 | 9.0 | 0.00 | 0.05 | 0.04 | 94 | 1016.0 |
| 20260906081147 | 71 | 233 | 3.0 | 9.0 | 0.00 | 0.05 | 0.04 | 94 | 1016.0 |
| 20260906081015 | 71 | 206 | 3.0 | 9.0 | 0.00 | 0.05 | 0.04 | 94 | 1016.0 |
| 20260906080908 | 71 | 228 | 3.0 | 9.0 | 0.00 | 0.05 | 0.04 | 94 | 1016.0 |
| 20260906080808 | 71 | 221 | 3.0 | 7.0 | 0.00 | 0.05 | 0.04 | 95 | 1016.0 |
| 20260906080709 | 70 | 227 | 3.0 | 7.0 | 0.00 | 0.05 | 0.04 | 95 | 1016.0 |
| 20260906080637 | 70 | 255 | 3.0 | 7.0 | 0.00 | 0.05 | 0.04 | 95 | 1016.0 |
| 20260906080626 | 70 | 243 | 3.0 | 7.0 | 0.00 | 0.05 | 0.04 | 95 | 1015.9 |
| 20260906080400 | 70 | 221 | 3.0 | 7.0 | 0.00 | 0.05 | 0.04 | 95 | 1015.9 |
| 20260906080300 | 70 | 238 | 3.0 | 7.0 | 0.00 | 0.05 | 0.04 | 95 | 1015.9 |
| 20260906080200 | 70 | 212 | 3.0 | 6.0 | 0.00 | 0.05 | 0.04 | 95 | 1016.0 |
| 20260906080132 | 70 | 217 | 3.0 | 6.0 | 0.00 | 0.05 | 0.04 | 95 | 1016.0 |
| 20260906080121 | 70 | 221 | 3.0 | 6.0 | 0.00 | 0.05 | 0.04 | 95 | 1016.0 |
| 20260906075858 | 70 | 216 | 3.0 | 6.0 | 0.00 | 0.05 | 0.04 | 95 | 1016.0 |
| 20260906075756 | 70 | 216 | 3.0 | 6.0 | 0.00 | 0.05 | 0.04 | 95 | 1016.0 |
| 20260906075654 | 70 | 216 | 3.0 | 6.0 | 0.00 | 0.05 | 0.04 | 95 | 1016.0 |
| 20260906075555 | 70 | 219 | 3.0 | 7.0 | 0.00 | 0.05 | 0.04 | 95 | 1016.0 |
| 20260906075454 | 70 | 219 | 3.0 | 7.0 | 0.00 | 0.05 | 0.04 | 95 | 1016.0 |
| 20260906075349 | 70 | 219 | 3.0 | 7.0 | 0.00 | 0.05 | 0.04 | 95 | 1016.0 |
| 20260906075342 | 70 | 216 | 3.0 | 8.0 | 0.00 | 0.05 | 0.04 | 95 | 1015.9 |
| 20260906075337 | 70 | 209 | 3.0 | 7.0 | 0.00 | 0.05 | 0.04 | 95 | 1015.9 |
| 20260906075323 | 70 | 225 | 3.0 | 7.0 | 0.00 | 0.05 | 0.04 | 95 | 1016.0 |
| 20260906075138 | 70 | 219 | 3.0 | 7.0 | 0.00 | 0.05 | 0.04 | 95 | 1016.0 |
| 20260906075024 | 70 | 224 | 3.0 | 10.0 | 0.00 | 0.05 | 0.04 | 95 | 1015.9 |
| 20260906075018 | 70 | 232 | 4.0 | 10.0 | 0.00 | 0.05 | 0.04 | 95 | 1015.9 |
| 20260906075004 | 70 | 203 | 3.0 | 7.0 | 0.00 | 0.05 | 0.04 | 95 | 1016.0 |
| 20260906074946 | 70 | 229 | 3.0 | 7.0 | 0.00 | 0.05 | 0.04 | 95 | 1015.9 |
| 20260906074443 | 70 | 217 | 4.0 | 10.0 | 0.00 | 0.05 | 0.04 | 95 | 1016.0 |
| 20260906074342 | 70 | 208 | 4.0 | 10.0 | 0.00 | 0.05 | 0.04 | 95 | 1015.9 |
| 20260906074314 | 70 | 206 | 4.0 | 13.0 | 0.00 | 0.05 | 0.04 | 95 | 1015.9 |
| 20260906074304 | 70 | 211 | 4.0 | 10.0 | 0.00 | 0.05 | 0.04 | 95 | 1016.0 |
| 20260906074101 | 70 | 183 | 4.0 | 10.0 | 0.00 | 0.05 | 0.04 | 95 | 1016.2 |
| 20260906074057 | 70 | 209 | 5.0 | 13.0 | 0.00 | 0.05 | 0.04 | 95 | 1016.1 |
| 20260906074052 | 70 | 217 | 5.0 | 13.0 | 0.00 | 0.05 | 0.04 | 95 | 1016.1 |
| 20260906074040 | 70 | 245 | 4.0 | 13.0 | 0.00 | 0.05 | 0.04 | 95 | 1016.0 |
| 20260906074033 | 70 | 221 | 4.0 | 9.0 | 0.00 | 0.05 | 0.04 | 95 | 1016.1 |
| 20260906074028 | 70 | 222 | 4.0 | 10.0 | 0.00 | 0.05 | 0.04 | 95 | 1016.1 |
| 20260906074009 | 70 | 202 | 5.0 | 13.0 | 0.00 | 0.05 | 0.04 | 95 | 1016.0 |
| 20260906073844 | 70 | 195 | 5.0 | 13.0 | 0.00 | 0.05 | 0.04 | 95 | 1016.0 |
| 20260906073838 | 70 | 217 | 4.0 | 10.0 | 0.00 | 0.05 | 0.04 | 95 | 1016.2 |
| 20260906073821 | 70 | 217 | 5.0 | 13.0 | 0.00 | 0.05 | 0.04 | 95 | 1016.0 |
| 20260906073641 | 70 | 218 | 5.0 | 13.0 | 0.00 | 0.05 | 0.04 | 95 | 1016.0 |
| 20260906073622 | 70 | 205 | 5.0 | 13.0 | 0.00 | 0.05 | 0.04 | 95 | 1016.0 |
| 20260906072829 | 70 | 208 | 4.0 | 10.0 | 0.00 | 0.05 | 0.04 | 95 | 1016.3 |
| 20260906072757 | 70 | 227 | 4.0 | 10.0 | 0.00 | 0.05 | 0.04 | 95 | 1016.2 |
| 20260906072748 | 70 | 225 | 4.0 | 10.0 | 0.00 | 0.05 | 0.04 | 95 | 1016.2 |
| 20260906072524 | 70 | 211 | 4.0 | 10.0 | 0.00 | 0.05 | 0.04 | 95 | 1016.3 |
| 20260906072424 | 70 | 201 | 4.0 | 10.0 | 0.00 | 0.05 | 0.04 | 95 | 1016.3 |
| 20260906072324 | 70 | 212 | 4.0 | 10.0 | 0.00 | 0.05 | 0.04 | 95 | 1016.4 |
| 20260906072223 | 70 | 223 | 4.0 | 10.0 | 0.00 | 0.05 | 0.04 | 95 | 1016.4 |
| 20260906072111 | 70 | 215 | 4.0 | 10.0 | 0.00 | 0.05 | 0.04 | 95 | 1016.4 |
| 20260906072010 | 70 | 213 | 4.0 | 10.0 | 0.00 | 0.05 | 0.04 | 95 | 1016.4 |
| 20260906071914 | 70 | 211 | 5.0 | 10.0 | 0.00 | 0.05 | 0.04 | 95 | 1016.4 |
| 20260906071808 | 70 | 239 | 5.0 | 10.0 | 0.00 | 0.05 | 0.04 | 95 | 1016.4 |
| 20260906071709 | 70 | 223 | 5.0 | 10.0 | 0.00 | 0.05 | 0.04 | 95 | 1016.4 |
| 20260906071604 | 70 | 231 | 5.0 | 10.0 | 0.00 | 0.05 | 0.04 | 95 | 1016.3 |
| 20260906071504 | 70 | 219 | 5.0 | 10.0 | 0.00 | 0.05 | 0.04 | 95 | 1016.4 |
| 20260906071403 | 70 | 213 | 5.0 | 10.0 | 0.00 | 0.05 | 0.04 | 95 | 1016.4 |
| 20260906071345 | 70 | 206 | 4.0 | 10.0 | 0.00 | 0.05 | 0.04 | 95 | 1016.5 |
| 20260906071329 | 70 | 211 | 5.0 | 10.0 | 0.00 | 0.05 | 0.04 | 95 | 1016.4 |
| 20260906071135 | 70 | 209 | 4.0 | 11.0 | 0.00 | 0.05 | 0.04 | 95 | 1016.5 |
| 20260906071123 | 70 | 206 | 4.0 | 10.0 | 0.00 | 0.05 | 0.04 | 95 | 1016.5 |
| 20260906070901 | 70 | 194 | 4.0 | 11.0 | 0.00 | 0.05 | 0.04 | 95 | 1016.5 |
| 20260906070800 | 70 | 251 | 4.0 | 11.0 | 0.00 | 0.05 | 0.04 | 95 | 1016.7 |
| 20260906070656 | 70 | 224 | 4.0 | 11.0 | 0.00 | 0.05 | 0.04 | 95 | 1016.5 |
| 20260906070553 | 70 | 218 | 5.0 | 11.0 | 0.00 | 0.05 | 0.04 | 95 | 1016.7 |
| 20260906070451 | 70 | 214 | 5.0 | 11.0 | 0.00 | 0.05 | 0.04 | 95 | 1016.7 |
| 20260906070350 | 70 | 200 | 5.0 | 11.0 | 0.00 | 0.05 | 0.04 | 95 | 1016.8 |
| 20260906070250 | 70 | 180 | 5.0 | 11.0 | 0.00 | 0.05 | 0.04 | 95 | 1016.7 |
| 20260906070147 | 70 | 218 | 5.0 | 11.0 | 0.00 | 0.05 | 0.04 | 95 | 1016.7 |
| 20260906070040 | 70 | 220 | 5.0 | 11.0 | 0.00 | 0.05 | 0.04 | 95 | 1016.8 |
| 20260906070015 | 70 | 239 | 5.0 | 12.0 | 0.00 | 0.05 | 0.04 | 95 | 1016.9 |
| 20260906070002 | 70 | 205 | 5.0 | 12.0 | 0.00 | 0.05 | 0.04 | 95 | 1016.8 |
| 20260906065741 | 70 | 166 | 5.0 | 12.0 | 0.00 | 0.05 | 0.04 | 94 | 1016.8 |
| 20260906065656 | 70 | 272 | 5.0 | 12.0 | 0.00 | 0.05 | 0.04 | 94 | 1016.9 |
| 20260906065644 | 70 | 213 | 5.0 | 12.0 | 0.00 | 0.05 | 0.04 | 94 | 1016.9 |
| 20260906065621 | 70 | 200 | 5.0 | 12.0 | 0.00 | 0.05 | 0.04 | 94 | 1016.8 |
| 20260906065459 | 70 | 212 | 5.0 | 12.0 | 0.00 | 0.05 | 0.04 | 94 | 1016.9 |
| 20260906065237 | 70 | 204 | 4.0 | 12.0 | 0.00 | 0.05 | 0.04 | 94 | 1017.0 |
| 20260906065135 | 70 | 202 | 4.0 | 12.0 | 0.00 | 0.05 | 0.04 | 94 | 1017.0 |
| 20260906065031 | 70 | 223 | 4.0 | 12.0 | 0.00 | 0.05 | 0.04 | 94 | 1017.0 |
| 20260906064926 | 70 | 217 | 4.0 | 10.0 | 0.00 | 0.05 | 0.04 | 94 | 1017.0 |
| 20260906064826 | 70 | 195 | 4.0 | 10.0 | 0.00 | 0.05 | 0.04 | 94 | 1017.0 |
| 20260906064726 | 70 | 214 | 4.0 | 9.0 | 0.00 | 0.05 | 0.04 | 94 | 1017.1 |
| 20260906064624 | 70 | 214 | 4.0 | 9.0 | 0.00 | 0.05 | 0.04 | 94 | 1017.0 |
| 20260906064525 | 70 | 209 | 4.0 | 10.0 | 0.00 | 0.05 | 0.04 | 94 | 1017.1 |
| 20260906064425 | 70 | 246 | 4.0 | 10.0 | 0.00 | 0.05 | 0.04 | 94 | 1017.1 |
| 20260906064325 | 70 | 207 | 4.0 | 10.0 | 0.00 | 0.05 | 0.04 | 94 | 1017.1 |
| 20260906064224 | 70 | 231 | 4.0 | 10.0 | 0.00 | 0.05 | 0.04 | 94 | 1017.0 |
| 20260906064140 | 70 | 206 | 4.0 | 10.0 | 0.00 | 0.05 | 0.04 | 94 | 1017.2 |
| 20260906064126 | 70 | 225 | 4.0 | 10.0 | 0.00 | 0.05 | 0.04 | 94 | 1017.0 |
| 20260906064120 | 70 | 206 | 3.0 | 10.0 | 0.00 | 0.05 | 0.04 | 94 | 1017.2 |
| 20260906064101 | 70 | 220 | 4.0 | 10.0 | 0.00 | 0.05 | 0.04 | 94 | 1017.2 |
| 20260906063721 | 70 | 210 | 3.0 | 10.0 | 0.00 | 0.05 | 0.04 | 94 | 1017.2 |
| 20260906063623 | 70 | 210 | 3.0 | 10.0 | 0.00 | 0.05 | 0.04 | 94 | 1017.2 |
| 20260906063522 | 70 | 210 | 3.0 | 6.0 | 0.00 | 0.05 | 0.04 | 94 | 1017.2 |
| 20260906063425 | 70 | 214 | 3.0 | 6.0 | 0.00 | 0.05 | 0.04 | 93 | 1017.2 |
| 20260906063322 | 70 | 214 | 3.0 | 6.0 | 0.00 | 0.05 | 0.04 | 93 | 1017.2 |
| 20260906063220 | 70 | 230 | 3.0 | 6.0 | 0.00 | 0.05 | 0.04 | 93 | 1017.2 |
| 20260906063118 | 70 | 234 | 2.0 | 6.0 | 0.00 | 0.05 | 0.04 | 93 | 1017.2 |
| 20260906063049 | 70 | 233 | 3.0 | 6.0 | 0.00 | 0.05 | 0.04 | 93 | 1017.3 |
| 20260906063044 | 70 | 234 | 3.0 | 5.0 | 0.00 | 0.05 | 0.04 | 93 | 1017.2 |
| 20260906063031 | 70 | 228 | 2.0 | 5.0 | 0.00 | 0.05 | 0.04 | 93 | 1017.2 |
| 20260906063008 | 70 | 228 | 2.0 | 5.0 | 0.00 | 0.05 | 0.04 | 93 | 1017.2 |
| 20260906062856 | 70 | 250 | 3.0 | 6.0 | 0.00 | 0.05 | 0.04 | 93 | 1017.2 |
| 20260906062844 | 70 | 228 | 2.0 | 5.0 | 0.00 | 0.05 | 0.04 | 93 | 1017.2 |
| 20260906062701 | 70 | 234 | 3.0 | 5.0 | 0.00 | 0.05 | 0.04 | 93 | 1017.2 |
| 20260906062349 | 70 | 241 | 3.0 | 6.0 | 0.00 | 0.05 | 0.04 | 93 | 1017.1 |
| 20260906062337 | 70 | 243 | 3.0 | 6.0 | 0.00 | 0.05 | 0.04 | 93 | 1017.1 |
| 20260906062115 | 70 | 213 | 3.0 | 6.0 | 0.00 | 0.05 | 0.04 | 93 | 1017.0 |
| 20260906062016 | 70 | 212 | 3.0 | 6.0 | 0.00 | 0.05 | 0.04 | 93 | 1017.0 |
| 20260906061920 | 70 | 219 | 3.0 | 6.0 | 0.01 | 0.05 | 0.04 | 93 | 1017.1 |
| 20260906061816 | 70 | 219 | 3.0 | 6.0 | 0.01 | 0.05 | 0.04 | 93 | 1017.0 |
| 20260906061715 | 70 | 219 | 3.0 | 6.0 | 0.01 | 0.05 | 0.04 | 93 | 1017.0 |
| 20260906061613 | 70 | 219 | 3.0 | 6.0 | 0.01 | 0.05 | 0.04 | 93 | 1017.0 |
| 20260906061512 | 70 | 220 | 3.0 | 6.0 | 0.01 | 0.05 | 0.04 | 93 | 1016.9 |
| 20260906061445 | 70 | 217 | 3.0 | 6.0 | 0.01 | 0.05 | 0.04 | 93 | 1016.8 |
| 20260906061436 | 70 | 217 | 3.0 | 6.0 | 0.01 | 0.05 | 0.04 | 93 | 1016.9 |
| 20260906061209 | 70 | 217 | 3.0 | 6.0 | 0.01 | 0.05 | 0.04 | 93 | 1016.9 |
| 20260906061103 | 70 | 207 | 3.0 | 6.0 | 0.01 | 0.05 | 0.04 | 93 | 1016.8 |
| 20260906061005 | 70 | 205 | 3.0 | 5.0 | 0.01 | 0.05 | 0.04 | 93 | 1016.8 |
| 20260906060904 | 70 | 209 | 3.0 | 5.0 | 0.01 | 0.05 | 0.04 | 93 | 1016.8 |
| 20260906060804 | 70 | 217 | 3.0 | 6.0 | 0.01 | 0.05 | 0.04 | 93 | 1016.8 |
| 20260906060703 | 70 | 209 | 3.0 | 6.0 | 0.02 | 0.05 | 0.04 | 93 | 1016.8 |
| 20260906060600 | 70 | 224 | 3.0 | 7.0 | 0.02 | 0.05 | 0.04 | 93 | 1016.8 |
| 20260906060456 | 70 | 234 | 3.0 | 7.0 | 0.02 | 0.05 | 0.04 | 93 | 1016.8 |
| 20260906060354 | 70 | 234 | 3.0 | 7.0 | 0.02 | 0.05 | 0.04 | 92 | 1016.9 |
| 20260906060254 | 70 | 234 | 3.0 | 7.0 | 0.03 | 0.05 | 0.04 | 92 | 1016.8 |
| 20260906060153 | 70 | 234 | 3.0 | 7.0 | 0.04 | 0.05 | 0.04 | 92 | 1016.9 |
| 20260906060052 | 70 | 234 | 3.0 | 7.0 | 0.04 | 0.05 | 0.04 | 92 | 1016.9 |
| 20260906055949 | 71 | 242 | 3.0 | 7.0 | 0.04 | 0.05 | 0.04 | 92 | 1017.0 |
| 20260906055926 | 70 | 208 | 3.0 | 7.0 | 0.05 | 0.05 | 0.04 | 92 | 1017.1 |
| 20260906055916 | 71 | 247 | 3.0 | 7.0 | 0.05 | 0.05 | 0.04 | 92 | 1017.1 |
| 20260906055647 | 71 | 227 | 2.0 | 7.0 | 0.05 | 0.05 | 0.04 | 92 | 1017.1 |
| 20260906055618 | 70 | 284 | 2.0 | 5.0 | 0.05 | 0.05 | 0.04 | 92 | 1017.1 |
| 20260906055605 | 70 | 227 | 2.0 | 5.0 | 0.05 | 0.05 | 0.04 | 92 | 1017.2 |
| 20260906055342 | 70 | 226 | 2.0 | 5.0 | 0.05 | 0.05 | 0.04 | 92 | 1017.2 |
| 20260906055240 | 70 | 223 | 2.0 | 5.0 | 0.05 | 0.05 | 0.04 | 92 | 1017.2 |
| 20260906055147 | 70 | 30 | 3.0 | 9.0 | 0.05 | 0.05 | 0.04 | 92 | 1017.3 |
| 20260906055037 | 70 | 31 | 3.0 | 12.0 | 0.05 | 0.05 | 0.04 | 92 | 1017.2 |
| 20260906054934 | 70 | 31 | 4.0 | 12.0 | 0.05 | 0.05 | 0.04 | 92 | 1017.2 |
| 20260906054835 | 70 | 31 | 4.0 | 12.0 | 0.05 | 0.05 | 0.04 | 92 | 1017.2 |
| 20260906054732 | 70 | 26 | 4.0 | 12.0 | 0.05 | 0.05 | 0.04 | 92 | 1017.3 |
| 20260906054634 | 70 | 44 | 4.0 | 12.0 | 0.05 | 0.05 | 0.04 | 92 | 1017.4 |
| 20260906054531 | 70 | 46 | 5.0 | 12.0 | 0.05 | 0.05 | 0.04 | 92 | 1017.4 |
| 20260906054430 | 70 | 49 | 5.0 | 12.0 | 0.05 | 0.05 | 0.04 | 92 | 1017.4 |
| 20260906054402 | 70 | 39 | 6.0 | 12.0 | 0.05 | 0.05 | 0.04 | 92 | 1017.4 |
| 20260906054351 | 70 | 55 | 5.0 | 12.0 | 0.05 | 0.05 | 0.04 | 92 | 1017.4 |
| 20260906054129 | 70 | 51 | 6.0 | 16.0 | 0.05 | 0.05 | 0.04 | 92 | 1017.4 |
| 20260906054029 | 70 | 33 | 6.0 | 16.0 | 0.05 | 0.05 | 0.04 | 92 | 1017.4 |
| 20260906053931 | 70 | 69 | 6.0 | 16.0 | 0.05 | 0.05 | 0.04 | 92 | 1017.3 |
| 20260906053830 | 70 | 51 | 6.0 | 16.0 | 0.05 | 0.05 | 0.04 | 92 | 1017.3 |
| 20260906053730 | 70 | 5 | 7.0 | 16.0 | 0.05 | 0.05 | 0.04 | 92 | 1017.3 |
| 20260906053628 | 70 | 28 | 7.0 | 16.0 | 0.05 | 0.05 | 0.04 | 92 | 1017.3 |
| 20260906053529 | 70 | 46 | 7.0 | 16.0 | 0.05 | 0.05 | 0.04 | 92 | 1017.2 |
| 20260906053428 | 71 | 49 | 7.0 | 16.0 | 0.05 | 0.05 | 0.04 | 92 | 1017.4 |
| 20260906053354 | 70 | 61 | 7.0 | 15.0 | 0.05 | 0.05 | 0.04 | 92 | 1017.4 |
| 20260906053343 | 71 | 56 | 7.0 | 16.0 | 0.05 | 0.05 | 0.04 | 92 | 1017.4 |
| 20260906053200 | 71 | 40 | 7.0 | 15.0 | 0.05 | 0.05 | 0.04 | 92 | 1017.4 |
| 20260906053148 | 71 | 22 | 7.0 | 15.0 | 0.05 | 0.05 | 0.04 | 92 | 1017.4 |
| 20260906052923 | 71 | 62 | 7.0 | 15.0 | 0.05 | 0.05 | 0.04 | 92 | 1017.5 |
| 20260906052820 | 71 | 38 | 7.0 | 15.0 | 0.05 | 0.05 | 0.04 | 92 | 1017.5 |
| 20260906052720 | 71 | 55 | 7.0 | 15.0 | 0.05 | 0.05 | 0.04 | 92 | 1017.7 |
| 20260906052701 | 71 | 51 | 7.0 | 15.0 | 0.05 | 0.05 | 0.04 | 92 | 1017.7 |
| 20260906052648 | 71 | 39 | 7.0 | 15.0 | 0.05 | 0.05 | 0.04 | 92 | 1017.7 |
| 20260906052455 | 71 | 31 | 7.0 | 17.0 | 0.05 | 0.05 | 0.04 | 91 | 1018.0 |
| 20260906052443 | 71 | 46 | 7.0 | 17.0 | 0.05 | 0.05 | 0.04 | 91 | 1017.8 |
| 20260906052227 | 71 | 49 | 7.0 | 17.0 | 0.05 | 0.05 | 0.04 | 91 | 1018.0 |
| 20260906052119 | 71 | 31 | 7.0 | 17.0 | 0.05 | 0.05 | 0.04 | 91 | 1018.0 |
| 20260906052033 | 71 | 65 | 7.0 | 17.0 | 0.05 | 0.05 | 0.04 | 91 | 1018.0 |
| 20260906051921 | 71 | 33 | 7.0 | 17.0 | 0.04 | 0.04 | 0.04 | 91 | 1018.1 |
| 20260906051821 | 71 | 40 | 7.0 | 17.0 | 0.04 | 0.04 | 0.03 | 91 | 1018.1 |
| 20260906051721 | 71 | 69 | 7.0 | 17.0 | 0.04 | 0.04 | 0.03 | 90 | 1018.1 |
| 20260906051614 | 71 | 42 | 7.0 | 17.0 | 0.04 | 0.04 | 0.03 | 90 | 1018.1 |
| 20260906051514 | 71 | 32 | 6.0 | 17.0 | 0.04 | 0.04 | 0.03 | 90 | 1018.2 |
| 20260906051447 | 71 | 51 | 7.0 | 16.0 | 0.04 | 0.04 | 0.03 | 90 | 1018.2 |
| 20260906051313 | 71 | 43 | 7.0 | 16.0 | 0.04 | 0.04 | 0.03 | 90 | 1018.2 |
| 20260906051215 | 72 | 46 | 7.0 | 16.0 | 0.04 | 0.04 | 0.03 | 89 | 1018.2 |
| 20260906051110 | 72 | 44 | 7.0 | 17.0 | 0.04 | 0.04 | 0.03 | 89 | 1018.2 |
| 20260906051012 | 72 | 53 | 7.0 | 17.0 | 0.04 | 0.04 | 0.03 | 89 | 1018.1 |
| 20260906050949 | 72 | 37 | 7.0 | 17.0 | 0.03 | 0.03 | 0.03 | 88 | 1018.1 |
| 20260906050943 | 73 | 60 | 7.0 | 17.0 | 0.03 | 0.03 | 0.02 | 87 | 1018.2 |
| 20260906050928 | 72 | 5 | 7.0 | 17.0 | 0.04 | 0.04 | 0.03 | 88 | 1018.1 |
| 20260906050858 | 72 | 24 | 7.0 | 17.0 | 0.04 | 0.04 | 0.03 | 88 | 1018.1 |
| 20260906050502 | 73 | 33 | 7.0 | 17.0 | 0.03 | 0.03 | 0.02 | 86 | 1018.2 |
| 20260906050401 | 73 | 32 | 8.0 | 17.0 | 0.03 | 0.03 | 0.02 | 86 | 1018.1 |
| 20260906050302 | 73 | 40 | 8.0 | 17.0 | 0.02 | 0.02 | 0.02 | 86 | 1018.1 |
| 20260906050203 | 74 | 5 | 7.0 | 17.0 | 0.01 | 0.01 | 0.01 | 85 | 1018.1 |
| 20260906050103 | 74 | 31 | 8.0 | 17.0 | 0.01 | 0.01 | 0.00 | 85 | 1018.0 |
| 20260906050002 | 74 | 53 | 8.0 | 17.0 | 0.01 | 0.01 | 0.01 | 85 | 1017.9 |
| 20260906045900 | 74 | 80 | 8.0 | 17.0 | 0.00 | 0.00 | 0.01 | 84 | 1017.9 |
| 20260906045758 | 74 | 53 | 8.0 | 17.0 | 0.00 | 0.00 | 0.00 | 83 | 1017.8 |
| 20260906045700 | 75 | 48 | 7.0 | 17.0 | 0.00 | 0.00 | 0.00 | 83 | 1017.7 |
| 20260906045600 | 75 | 328 | 7.0 | 17.0 | 0.00 | 0.00 | 0.00 | 82 | 1017.7 |
| 20260906045459 | 75 | 34 | 7.0 | 17.0 | 0.00 | 0.00 | 0.00 | 81 | 1017.7 |
| 20260906045358 | 75 | 38 | 6.0 | 17.0 | 0.00 | 0.00 | 0.00 | 81 | 1017.7 |
| 20260906045330 | 75 | 13 | 6.0 | 16.0 | 0.00 | 0.00 | 0.00 | 81 | 1017.7 |
| 20260906045320 | 75 | 348 | 6.0 | 17.0 | 0.00 | 0.00 | 0.00 | 81 | 1017.7 |
| 20260906045057 | 76 | 40 | 6.0 | 16.0 | 0.00 | 0.00 | 0.00 | 80 | 1017.7 |
| 20260906045034 | 76 | 331 | 6.0 | 16.0 | 0.00 | 0.00 | 0.00 | 79 | 1017.7 |
| 20260906045021 | 76 | 309 | 6.0 | 16.0 | 0.00 | 0.00 | 0.00 | 80 | 1017.7 |
| 20260906044816 | 76 | 348 | 7.0 | 16.0 | 0.00 | 0.00 | 0.00 | 79 | 1017.7 |
| 20260906044810 | 77 | 336 | 6.0 | 16.0 | 0.00 | 0.00 | 0.00 | 78 | 1017.7 |
| 20260906044759 | 76 | 269 | 6.0 | 16.0 | 0.00 | 0.00 | 0.00 | 80 | 1017.7 |
| 20260906044733 | 76 | 42 | 6.0 | 16.0 | 0.00 | 0.00 | 0.00 | 79 | 1017.7 |
| 20260906044344 | 77 | 337 | 6.0 | 14.0 | 0.00 | 0.00 | 0.00 | 77 | 1017.8 |
| 20260906044244 | 77 | 336 | 6.0 | 14.0 | 0.00 | 0.00 | 0.00 | 77 | 1017.7 |
| 20260906044145 | 78 | 0 | 6.0 | 14.0 | 0.00 | 0.00 | 0.00 | 77 | 1017.8 |
| 20260906044046 | 78 | 42 | 6.0 | 14.0 | 0.00 | 0.00 | 0.00 | 76 | 1017.8 |
| 20260906043946 | 78 | 315 | 6.0 | 13.0 | 0.00 | 0.00 | 0.00 | 75 | 1017.8 |
| 20260906043843 | 79 | 325 | 5.0 | 13.0 | 0.00 | 0.00 | 0.00 | 74 | 1017.7 |
| 20260906043817 | 80 | 321 | 4.0 | 13.0 | 0.00 | 0.00 | 0.00 | 72 | 1017.6 |
| 20260906043805 | 79 | 348 | 4.0 | 13.0 | 0.00 | 0.00 | 0.00 | 73 | 1017.7 |
| 20260906043547 | 80 | 326 | 3.0 | 10.0 | 0.00 | 0.00 | 0.00 | 71 | 1017.6 |
| 20260906043440 | 80 | 40 | 3.0 | 10.0 | 0.00 | 0.00 | 0.00 | 71 | 1017.6 |
| 20260906043336 | 80 | 348 | 2.0 | 10.0 | 0.00 | 0.00 | 0.00 | 69 | 1017.7 |
| 20260906043239 | 80 | 337 | 2.0 | 9.0 | 0.00 | 0.00 | 0.00 | 68 | 1017.6 |
| 20260906043143 | 80 | 323 | 1.0 | 4.0 | 0.00 | 0.00 | 0.00 | 69 | 1017.5 |
| 20260906043036 | 80 | 215 | 1.0 | 3.0 | 0.00 | 0.00 | 0.00 | 68 | 1017.4 |
| 20260906042937 | 80 | 215 | 1.0 | 3.0 | 0.00 | 0.00 | 0.00 | 68 | 1017.3 |
| 20260906042835 | 80 | 215 | 1.0 | 3.0 | 0.00 | 0.00 | 0.00 | 68 | 1017.2 |
| 20260906042736 | 80 | 215 | 1.0 | 3.0 | 0.00 | 0.00 | 0.00 | 68 | 1017.2 |
| 20260906042635 | 80 | 215 | 1.0 | 3.0 | 0.00 | 0.00 | 0.00 | 68 | 1017.2 |
| 20260906042534 | 80 | 215 | 1.0 | 3.0 | 0.00 | 0.00 | 0.00 | 69 | 1017.2 |
| 20260906042440 | 80 | 215 | 1.0 | 3.0 | 0.00 | 0.00 | 0.00 | 69 | 1017.2 |
| 20260906042403 | 80 | 215 | 1.0 | 3.0 | 0.00 | 0.00 | 0.00 | 69 | 1017.2 |
| 20260906042354 | 80 | 215 | 1.0 | 3.0 | 0.00 | 0.00 | 0.00 | 69 | 1017.1 |
| 20260906042134 | 80 | 215 | 1.0 | 3.0 | 0.00 | 0.00 | 0.00 | 69 | 1017.1 |
| 20260906042106 | 80 | 215 | 1.0 | 3.0 | 0.00 | 0.00 | 0.00 | 69 | 1017.1 |
| 20260906042056 | 80 | 215 | 1.0 | 3.0 | 0.00 | 0.00 | 0.00 | 69 | 1017.1 |
| 20260906041831 | 80 | 215 | 1.0 | 2.0 | 0.00 | 0.00 | 0.00 | 69 | 1017.1 |
| 20260906041729 | 80 | 215 | 1.0 | 2.0 | 0.00 | 0.00 | 0.00 | 69 | 1017.0 |
| 20260906041630 | 80 | 215 | 1.0 | 2.0 | 0.00 | 0.00 | 0.00 | 69 | 1017.0 |
| 20260906041530 | 80 | 215 | 1.0 | 2.0 | 0.00 | 0.00 | 0.00 | 69 | 1017.0 |
| 20260906041440 | 80 | 215 | 1.0 | 2.0 | 0.00 | 0.00 | 0.00 | 69 | 1017.0 |
| 20260906041425 | 80 | 215 | 1.0 | 3.0 | 0.00 | 0.00 | 0.00 | 69 | 1017.2 |
| 20260906041419 | 80 | 215 | 1.0 | 3.0 | 0.00 | 0.00 | 0.00 | 69 | 1017.2 |
| 20260906041359 | 80 | 215 | 1.0 | 2.0 | 0.00 | 0.00 | 0.00 | 69 | 1017.0 |
| 20260906041231 | 80 | 215 | 1.0 | 3.0 | 0.00 | 0.00 | 0.00 | 69 | 1017.1 |
| 20260906041205 | 80 | 215 | 1.0 | 3.0 | 0.00 | 0.00 | 0.00 | 69 | 1017.2 |
| 20260906041022 | 80 | 215 | 1.0 | 3.0 | 0.00 | 0.00 | 0.00 | 69 | 1017.2 |
| 20260906040853 | 80 | 215 | 1.0 | 3.0 | 0.00 | 0.00 | 0.00 | 69 | 1017.2 |
| 20260906040634 | 80 | 215 | 1.0 | 3.0 | 0.00 | 0.00 | 0.00 | 69 | 1017.2 |
| 20260906040528 | 80 | 215 | 1.0 | 3.0 | 0.00 | 0.00 | 0.00 | 69 | 1017.2 |
| 20260906040422 | 80 | 215 | 1.0 | 3.0 | 0.00 | 0.00 | 0.00 | 69 | 1017.3 |
| 20260906040325 | 80 | 215 | 1.0 | 3.0 | 0.00 | 0.00 | 0.00 | 69 | 1017.3 |
| 20260906040219 | 80 | 215 | 1.0 | 3.0 | 0.00 | 0.00 | 0.00 | 69 | 1017.3 |
| 20260906040201 | 80 | 215 | 0.0 | 3.0 | 0.00 | 0.00 | 0.00 | 69 | 1017.2 |
| 20260906040147 | 80 | 215 | 1.0 | 3.0 | 0.00 | 0.00 | 0.00 | 69 | 1017.3 |
| 20260906035915 | 80 | 215 | 0.0 | 3.0 | 0.00 | 0.00 | 0.00 | 69 | 1017.3 |
| 20260906035821 | 80 | 215 | 0.0 | 3.0 | 0.00 | 0.00 | 0.00 | 69 | 1017.3 |
| 20260906035714 | 80 | 215 | 0.0 | 3.0 | 0.00 | 0.00 | 0.00 | 70 | 1017.3 |
| 20260906035701 | 80 | 215 | 0.0 | 2.0 | 0.00 | 0.00 | 0.00 | 69 | 1017.4 |
| 20260906035645 | 80 | 215 | 0.0 | 2.0 | 0.00 | 0.00 | 0.00 | 69 | 1017.3 |
| 20260906035408 | 79 | 215 | 0.0 | 1.0 | 0.00 | 0.00 | 0.00 | 70 | 1017.4 |
| 20260906035306 | 79 | 215 | 0.0 | 1.0 | 0.00 | 0.00 | 0.00 | 70 | 1017.5 |
| 20260906035208 | 79 | 215 | 0.0 | 1.0 | 0.00 | 0.00 | 0.00 | 70 | 1017.5 |
| 20260906035156 | 79 | 215 | 1.0 | 2.0 | 0.00 | 0.00 | 0.00 | 70 | 1017.6 |
| 20260906035140 | 79 | 215 | 0.0 | 2.0 | 0.00 | 0.00 | 0.00 | 70 | 1017.5 |
| 20260906034933 | 79 | 215 | 1.0 | 2.0 | 0.00 | 0.00 | 0.00 | 70 | 1017.6 |
| 20260906034923 | 79 | 215 | 1.0 | 2.0 | 0.00 | 0.00 | 0.00 | 70 | 1017.6 |
| 20260906034859 | 79 | 215 | 1.0 | 2.0 | 0.00 | 0.00 | 0.00 | 70 | 1017.6 |
| 20260906034837 | 79 | 215 | 1.0 | 2.0 | 0.00 | 0.00 | 0.00 | 70 | 1017.6 |
| 20260906034650 | 79 | 215 | 1.0 | 2.0 | 0.00 | 0.00 | 0.00 | 70 | 1017.6 |
| 20260906034514 | 79 | 215 | 1.0 | 2.0 | 0.00 | 0.00 | 0.00 | 70 | 1017.6 |
| 20260906034246 | 79 | 215 | 1.0 | 2.0 | 0.00 | 0.00 | 0.00 | 70 | 1017.6 |
| 20260906034147 | 79 | 215 | 1.0 | 2.0 | 0.00 | 0.00 | 0.00 | 70 | 1017.6 |
| 20260906034043 | 79 | 215 | 1.0 | 2.0 | 0.00 | 0.00 | 0.00 | 70 | 1017.5 |
| 20260906033943 | 79 | 215 | 1.0 | 3.0 | 0.00 | 0.00 | 0.00 | 70 | 1017.4 |
| 20260906033836 | 80 | 215 | 1.0 | 3.0 | 0.00 | 0.00 | 0.00 | 71 | 1017.4 |
| 20260906033826 | 80 | 215 | 1.0 | 3.0 | 0.00 | 0.00 | 0.00 | 71 | 1017.5 |
| 20260906033805 | 80 | 215 | 1.0 | 3.0 | 0.00 | 0.00 | 0.00 | 71 | 1017.4 |
| 20260906033535 | 80 | 215 | 1.0 | 3.0 | 0.00 | 0.00 | 0.00 | 71 | 1017.4 |
| 20260906033437 | 80 | 215 | 1.0 | 3.0 | 0.00 | 0.00 | 0.00 | 71 | 1017.4 |
| 20260906033358 | 80 | 215 | 0.0 | 3.0 | 0.00 | 0.00 | 0.00 | 71 | 1017.4 |
| 20260906033345 | 80 | 215 | 1.0 | 3.0 | 0.00 | 0.00 | 0.00 | 71 | 1017.4 |
| 20260906033316 | 80 | 215 | 1.0 | 3.0 | 0.00 | 0.00 | 0.00 | 71 | 1017.4 |
| 20260906033149 | 80 | 215 | 1.0 | 3.0 | 0.00 | 0.00 | 0.00 | 71 | 1017.4 |
| 20260906032931 | 80 | 215 | 0.0 | 2.0 | 0.00 | 0.00 | 0.00 | 71 | 1017.3 |
| 20260906032821 | 80 | 215 | 0.0 | 1.0 | 0.00 | 0.00 | 0.00 | 71 | 1017.3 |
| 20260906032721 | 80 | 215 | 0.0 | 0.0 | 0.00 | 0.00 | 0.00 | 71 | 1017.2 |
| 20260906032622 | 80 | 215 | 0.0 | 0.0 | 0.00 | 0.00 | 0.00 | 71 | 1017.2 |
| 20260906032522 | 80 | 215 | 0.0 | 0.0 | 0.00 | 0.00 | 0.00 | 71 | 1017.1 |
| 20260906032420 | 80 | 215 | 0.0 | 0.0 | 0.00 | 0.00 | 0.00 | 71 | 1017.1 |
| 20260906032324 | 80 | 215 | 0.0 | 0.0 | 0.00 | 0.00 | 0.00 | 71 | 1017.0 |
| 20260906032221 | 80 | 215 | 0.0 | 0.0 | 0.00 | 0.00 | 0.00 | 71 | 1017.0 |
| 20260906032123 | 80 | 215 | 0.0 | 0.0 | 0.00 | 0.00 | 0.00 | 71 | 1017.1 |
| 20260906032026 | 80 | 215 | 0.0 | 0.0 | 0.00 | 0.00 | 0.00 | 71 | 1017.1 |
| 20260906031928 | 80 | 215 | 0.0 | 0.0 | 0.00 | 0.00 | 0.00 | 71 | 1017.0 |
| 20260906031829 | 80 | 215 | 0.0 | 0.0 | 0.00 | 0.00 | 0.00 | 71 | 1017.0 |
| 20260906031803 | 80 | 215 | 0.0 | 1.0 | 0.00 | 0.00 | 0.00 | 71 | 1017.0 |
| 20260906031746 | 80 | 215 | 0.0 | 0.0 | 0.00 | 0.00 | 0.00 | 71 | 1017.0 |
| 20260906031539 | 80 | 215 | 0.0 | 2.0 | 0.00 | 0.00 | 0.00 | 71 | 1016.9 |
| 20260906031421 | 80 | 215 | 0.0 | 2.0 | 0.00 | 0.00 | 0.00 | 71 | 1017.0 |
| 20260906031321 | 80 | 215 | 0.0 | 2.0 | 0.00 | 0.00 | 0.00 | 70 | 1017.1 |
| 20260906031223 | 80 | 215 | 0.0 | 2.0 | 0.00 | 0.00 | 0.00 | 70 | 1017.1 |
| 20260906031123 | 80 | 215 | 0.0 | 2.0 | 0.00 | 0.00 | 0.00 | 70 | 1017.1 |
| 20260906031021 | 80 | 215 | 1.0 | 2.0 | 0.00 | 0.00 | 0.00 | 70 | 1017.2 |
| 20260906030921 | 79 | 215 | 1.0 | 2.0 | 0.00 | 0.00 | 0.00 | 70 | 1017.1 |
| 20260906030822 | 79 | 215 | 1.0 | 2.0 | 0.00 | 0.00 | 0.00 | 70 | 1017.0 |
| 20260906030720 | 79 | 215 | 1.0 | 2.0 | 0.00 | 0.00 | 0.00 | 70 | 1017.0 |
| 20260906030626 | 79 | 215 | 1.0 | 2.0 | 0.00 | 0.00 | 0.00 | 70 | 1017.0 |
| 20260906030517 | 79 | 215 | 1.0 | 2.0 | 0.00 | 0.00 | 0.00 | 70 | 1017.0 |
| 20260906030425 | 79 | 215 | 1.0 | 2.0 | 0.00 | 0.00 | 0.00 | 70 | 1017.0 |
| 20260906030348 | 79 | 215 | 0.0 | 2.0 | 0.00 | 0.00 | 0.00 | 70 | 1017.0 |
| 20260906030338 | 79 | 215 | 1.0 | 2.0 | 0.00 | 0.00 | 0.00 | 70 | 1017.0 |
| 20260906030114 | 79 | 215 | 0.0 | 2.0 | 0.00 | 0.00 | 0.00 | 70 | 1017.1 |
| 20260906030017 | 79 | 215 | 0.0 | 2.0 | 0.00 | 0.00 | 0.00 | 70 | 1017.1 |
| 20260906025912 | 79 | 215 | 0.0 | 2.0 | 0.00 | 0.00 | 0.00 | 70 | 1017.1 |
| 20260906025827 | 79 | 215 | 0.0 | 2.0 | 0.00 | 0.00 | 0.00 | 71 | 1017.2 |
| 20260906025823 | 79 | 215 | 0.0 | 2.0 | 0.00 | 0.00 | 0.00 | 71 | 1017.1 |
| 20260906025812 | 79 | 215 | 0.0 | 2.0 | 0.00 | 0.00 | 0.00 | 70 | 1017.1 |
| 20260906025750 | 79 | 215 | 0.0 | 2.0 | 0.00 | 0.00 | 0.00 | 70 | 1017.1 |
| 20260906025411 | 79 | 215 | 1.0 | 2.0 | 0.00 | 0.00 | 0.00 | 71 | 1017.1 |
| 20260906025308 | 79 | 215 | 1.0 | 3.0 | 0.00 | 0.00 | 0.00 | 72 | 1017.1 |
| 20260906025211 | 79 | 215 | 1.0 | 3.0 | 0.00 | 0.00 | 0.00 | 72 | 1017.1 |
| 20260906025111 | 79 | 215 | 1.0 | 3.0 | 0.00 | 0.00 | 0.00 | 72 | 1017.0 |
| 20260906025010 | 79 | 215 | 1.0 | 3.0 | 0.00 | 0.00 | 0.00 | 72 | 1017.0 |
| 20260906024910 | 79 | 215 | 1.0 | 3.0 | 0.00 | 0.00 | 0.00 | 72 | 1017.1 |
| 20260906024809 | 79 | 215 | 1.0 | 3.0 | 0.00 | 0.00 | 0.00 | 71 | 1017.1 |
| 20260906024702 | 79 | 215 | 1.0 | 3.0 | 0.00 | 0.00 | 0.00 | 71 | 1017.0 |
| 20260906024602 | 79 | 215 | 1.0 | 3.0 | 0.00 | 0.00 | 0.00 | 71 | 1017.1 |
| 20260906024502 | 79 | 215 | 2.0 | 4.0 | 0.00 | 0.00 | 0.00 | 72 | 1017.1 |
| 20260906024403 | 79 | 215 | 2.0 | 4.0 | 0.00 | 0.00 | 0.00 | 72 | 1017.1 |
| 20260906024341 | 79 | 215 | 2.0 | 5.0 | 0.00 | 0.00 | 0.00 | 71 | 1017.1 |
| 20260906024330 | 79 | 215 | 2.0 | 4.0 | 0.00 | 0.00 | 0.00 | 71 | 1017.1 |
| 20260906024100 | 79 | 215 | 2.0 | 5.0 | 0.00 | 0.00 | 0.00 | 71 | 1017.1 |
| 20260906024033 | 79 | 215 | 2.0 | 5.0 | 0.00 | 0.00 | 0.00 | 71 | 1017.1 |
| 20260906024021 | 79 | 215 | 2.0 | 5.0 | 0.00 | 0.00 | 0.00 | 71 | 1017.1 |
| 20260906023758 | 79 | 215 | 2.0 | 5.0 | 0.00 | 0.00 | 0.00 | 71 | 1017.1 |
| 20260906023659 | 80 | 219 | 2.0 | 5.0 | 0.00 | 0.00 | 0.00 | 71 | 1017.1 |
| 20260906023559 | 80 | 219 | 2.0 | 5.0 | 0.00 | 0.00 | 0.00 | 71 | 1017.1 |
| 20260906023530 | 80 | 219 | 2.0 | 5.0 | 0.00 | 0.00 | 0.00 | 71 | 1017.0 |
| 20260906023519 | 80 | 219 | 2.0 | 5.0 | 0.00 | 0.00 | 0.00 | 71 | 1017.0 |
| 20260906023259 | 80 | 222 | 2.0 | 5.0 | 0.00 | 0.00 | 0.00 | 71 | 1017.1 |
| 20260906023158 | 80 | 244 | 2.0 | 5.0 | 0.00 | 0.00 | 0.00 | 71 | 1017.1 |
| 20260906023100 | 80 | 215 | 2.0 | 3.0 | 0.00 | 0.00 | 0.00 | 71 | 1017.1 |
| 20260906023000 | 80 | 215 | 2.0 | 3.0 | 0.00 | 0.00 | 0.00 | 71 | 1017.2 |
| 20260906022858 | 80 | 215 | 2.0 | 3.0 | 0.00 | 0.00 | 0.00 | 71 | 1017.1 |
| 20260906022759 | 80 | 215 | 2.0 | 3.0 | 0.00 | 0.00 | 0.00 | 70 | 1017.1 |
| 20260906022659 | 80 | 215 | 2.0 | 3.0 | 0.00 | 0.00 | 0.00 | 70 | 1017.1 |
| 20260906022630 | 80 | 215 | 2.0 | 5.0 | 0.00 | 0.00 | 0.00 | 70 | 1016.8 |
| 20260906022620 | 80 | 215 | 2.0 | 3.0 | 0.00 | 0.00 | 0.00 | 70 | 1017.0 |
| 20260906022559 | 80 | 215 | 2.0 | 3.0 | 0.00 | 0.00 | 0.00 | 70 | 1016.9 |
| 20260906022427 | 80 | 215 | 2.0 | 5.0 | 0.00 | 0.00 | 0.00 | 70 | 1016.9 |
| 20260906022200 | 80 | 215 | 2.0 | 5.0 | 0.00 | 0.00 | 0.00 | 70 | 1016.8 |
| 20260906022058 | 80 | 215 | 2.0 | 5.0 | 0.00 | 0.00 | 0.00 | 70 | 1016.8 |
| 20260906021958 | 80 | 215 | 2.0 | 5.0 | 0.00 | 0.00 | 0.00 | 70 | 1016.9 |
| 20260906021858 | 80 | 215 | 2.0 | 5.0 | 0.00 | 0.00 | 0.00 | 69 | 1016.9 |
| 20260906021759 | 80 | 215 | 2.0 | 5.0 | 0.00 | 0.00 | 0.00 | 69 | 1016.8 |
| 20260906021700 | 80 | 215 | 2.0 | 5.0 | 0.00 | 0.00 | 0.00 | 69 | 1016.8 |
| 20260906021600 | 80 | 215 | 1.0 | 5.0 | 0.00 | 0.00 | 0.00 | 68 | 1016.8 |
| 20260906021459 | 80 | 215 | 1.0 | 5.0 | 0.00 | 0.00 | 0.00 | 68 | 1016.7 |
| 20260906021359 | 80 | 214 | 1.0 | 4.0 | 0.00 | 0.00 | 0.00 | 69 | 1016.5 |
| 20260906021259 | 80 | 208 | 1.0 | 4.0 | 0.00 | 0.00 | 0.00 | 69 | 1016.5 |
| 20260906021158 | 80 | 237 | 1.0 | 3.0 | 0.00 | 0.00 | 0.00 | 69 | 1016.5 |
| 20260906021101 | 80 | 234 | 1.0 | 2.0 | 0.00 | 0.00 | 0.00 | 69 | 1016.5 |
| 20260906020959 | 80 | 234 | 1.0 | 2.0 | 0.00 | 0.00 | 0.00 | 69 | 1016.4 |
| 20260906020859 | 80 | 234 | 1.0 | 2.0 | 0.00 | 0.00 | 0.00 | 69 | 1016.4 |
| 20260906020801 | 80 | 234 | 1.0 | 2.0 | 0.00 | 0.00 | 0.00 | 69 | 1016.5 |
| 20260906020657 | 79 | 234 | 1.0 | 2.0 | 0.00 | 0.00 | 0.00 | 69 | 1016.5 |
| 20260906020557 | 79 | 234 | 1.0 | 2.0 | 0.00 | 0.00 | 0.00 | 69 | 1016.5 |
| 20260906020533 | 79 | 234 | 2.0 | 3.0 | 0.00 | 0.00 | 0.00 | 69 | 1016.5 |
| 20260906020520 | 79 | 234 | 2.0 | 3.0 | 0.00 | 0.00 | 0.00 | 69 | 1016.5 |
| 20260906020255 | 79 | 234 | 2.0 | 3.0 | 0.00 | 0.00 | 0.00 | 70 | 1016.5 |
| 20260906020156 | 79 | 234 | 2.0 | 3.0 | 0.00 | 0.00 | 0.00 | 70 | 1016.5 |
| 20260906020116 | 79 | 233 | 1.0 | 3.0 | 0.00 | 0.00 | 0.00 | 70 | 1016.4 |
| 20260906020100 | 79 | 233 | 1.0 | 3.0 | 0.00 | 0.00 | 0.00 | 70 | 1016.5 |
| 20260906020042 | 79 | 233 | 1.0 | 3.0 | 0.00 | 0.00 | 0.00 | 70 | 1016.4 |
| 20260906015753 | 79 | 233 | 1.0 | 3.0 | 0.00 | 0.00 | 0.00 | 70 | 1016.3 |
| 20260906015651 | 79 | 233 | 1.0 | 3.0 | 0.00 | 0.00 | 0.00 | 70 | 1016.3 |
| 20260906015551 | 79 | 233 | 1.0 | 3.0 | 0.00 | 0.00 | 0.00 | 70 | 1016.3 |
| 20260906015451 | 79 | 233 | 1.0 | 3.0 | 0.00 | 0.00 | 0.00 | 70 | 1016.3 |
| 20260906015350 | 79 | 233 | 1.0 | 3.0 | 0.00 | 0.00 | 0.00 | 70 | 1016.2 |
| 20260906015251 | 79 | 233 | 1.0 | 2.0 | 0.00 | 0.00 | 0.00 | 70 | 1016.1 |
| 20260906015153 | 79 | 233 | 1.0 | 3.0 | 0.00 | 0.00 | 0.00 | 70 | 1016.2 |
| 20260906015124 | 79 | 233 | 1.0 | 3.0 | 0.00 | 0.00 | 0.00 | 70 | 1016.1 |
| 20260906015113 | 79 | 233 | 1.0 | 3.0 | 0.00 | 0.00 | 0.00 | 70 | 1016.1 |
| 20260906014850 | 79 | 233 | 1.0 | 3.0 | 0.00 | 0.00 | 0.00 | 70 | 1016.0 |
| 20260906014751 | 79 | 233 | 1.0 | 3.0 | 0.00 | 0.00 | 0.00 | 71 | 1016.0 |
| 20260906014650 | 79 | 233 | 1.0 | 3.0 | 0.00 | 0.00 | 0.00 | 71 | 1016.0 |
| 20260906014552 | 79 | 233 | 1.0 | 3.0 | 0.00 | 0.00 | 0.00 | 71 | 1016.0 |
| 20260906014452 | 79 | 233 | 1.0 | 3.0 | 0.00 | 0.00 | 0.00 | 71 | 1016.1 |
| 20260906014352 | 79 | 233 | 1.0 | 3.0 | 0.00 | 0.00 | 0.00 | 71 | 1016.1 |
| 20260906014251 | 79 | 233 | 1.0 | 3.0 | 0.00 | 0.00 | 0.00 | 71 | 1016.1 |
| 20260906014152 | 79 | 232 | 1.0 | 3.0 | 0.00 | 0.00 | 0.00 | 71 | 1016.1 |
| 20260906014051 | 79 | 265 | 1.0 | 4.0 | 0.00 | 0.00 | 0.00 | 71 | 1016.1 |
| 20260906013952 | 79 | 265 | 1.0 | 4.0 | 0.00 | 0.00 | 0.00 | 71 | 1016.1 |
| 20260906013935 | 79 | 265 | 2.0 | 5.0 | 0.00 | 0.00 | 0.00 | 71 | 1016.0 |
| 20260906013921 | 79 | 265 | 2.0 | 5.0 | 0.00 | 0.00 | 0.00 | 71 | 1016.1 |
| 20260906013651 | 79 | 265 | 2.0 | 5.0 | 0.00 | 0.00 | 0.00 | 71 | 1016.0 |
| 20260906013552 | 79 | 265 | 2.0 | 5.0 | 0.00 | 0.00 | 0.00 | 71 | 1016.0 |
| 20260906013528 | 78 | 265 | 2.0 | 5.0 | 0.00 | 0.00 | 0.00 | 71 | 1015.9 |
| 20260906013516 | 79 | 265 | 2.0 | 5.0 | 0.00 | 0.00 | 0.00 | 71 | 1015.9 |
| 20260906013248 | 78 | 265 | 3.0 | 5.0 | 0.00 | 0.00 | 0.00 | 71 | 1015.9 |
| 20260906013146 | 78 | 265 | 3.0 | 5.0 | 0.00 | 0.00 | 0.00 | 71 | 1015.9 |
| 20260906013045 | 78 | 303 | 2.0 | 5.0 | 0.00 | 0.00 | 0.00 | 71 | 1016.0 |
| 20260906012951 | 78 | 306 | 2.0 | 5.0 | 0.00 | 0.00 | 0.00 | 71 | 1016.1 |
| 20260906012844 | 78 | 268 | 2.0 | 4.0 | 0.00 | 0.00 | 0.00 | 71 | 1016.1 |
| 20260906012740 | 78 | 263 | 2.0 | 4.0 | 0.00 | 0.00 | 0.00 | 72 | 1016.1 |
| 20260906012640 | 78 | 306 | 3.0 | 5.0 | 0.00 | 0.00 | 0.00 | 72 | 1016.2 |
| 20260906012541 | 78 | 293 | 3.0 | 7.0 | 0.00 | 0.00 | 0.00 | 73 | 1016.1 |
| 20260906012439 | 78 | 290 | 3.0 | 7.0 | 0.00 | 0.00 | 0.00 | 73 | 1016.1 |
| 20260906012344 | 78 | 270 | 3.0 | 7.0 | 0.00 | 0.00 | 0.00 | 73 | 1016.1 |
| 20260906012313 | 78 | 212 | 3.0 | 7.0 | 0.00 | 0.00 | 0.00 | 74 | 1016.1 |
| 20260906012300 | 78 | 212 | 3.0 | 7.0 | 0.00 | 0.00 | 0.00 | 73 | 1016.1 |
| 20260906012037 | 78 | 212 | 3.0 | 7.0 | 0.00 | 0.00 | 0.00 | 73 | 1016.1 |
| 20260906011936 | 78 | 212 | 3.0 | 7.0 | 0.00 | 0.00 | 0.00 | 73 | 1016.1 |
| 20260906011834 | 78 | 210 | 3.0 | 7.0 | 0.00 | 0.00 | 0.00 | 73 | 1016.1 |
| 20260906011733 | 78 | 202 | 3.0 | 7.0 | 0.00 | 0.00 | 0.00 | 73 | 1016.2 |
| 20260906011632 | 79 | 206 | 4.0 | 8.0 | 0.00 | 0.00 | 0.00 | 73 | 1016.3 |
| 20260906011538 | 79 | 215 | 4.0 | 11.0 | 0.00 | 0.00 | 0.00 | 72 | 1016.5 |
| 20260906011432 | 79 | 212 | 4.0 | 14.0 | 0.00 | 0.00 | 0.00 | 72 | 1016.7 |
| 20260906011333 | 79 | 251 | 5.0 | 21.0 | 0.00 | 0.00 | 0.00 | 72 | 1016.8 |
| 20260906011259 | 79 | 214 | 5.0 | 21.0 | 0.00 | 0.00 | 0.00 | 72 | 1016.4 |
| 20260906011249 | 79 | 287 | 5.0 | 21.0 | 0.00 | 0.00 | 0.00 | 72 | 1016.7 |
| 20260906011101 | 80 | 181 | 5.0 | 21.0 | 0.00 | 0.00 | 0.00 | 71 | 1016.3 |
| 20260906011049 | 80 | 211 | 5.0 | 21.0 | 0.00 | 0.00 | 0.00 | 71 | 1016.4 |
| 20260906010824 | 80 | 215 | 5.0 | 21.0 | 0.00 | 0.00 | 0.00 | 70 | 1016.3 |
| 20260906010725 | 80 | 265 | 4.0 | 21.0 | 0.00 | 0.00 | 0.00 | 70 | 1016.7 |
| 20260906010618 | 81 | 221 | 3.0 | 21.0 | 0.00 | 0.00 | 0.00 | 69 | 1016.8 |
| 20260906010556 | 81 | 38 | 2.0 | 9.0 | 0.00 | 0.00 | 0.00 | 67 | 1016.7 |
| 20260906010543 | 81 | 245 | 2.0 | 21.0 | 0.00 | 0.00 | 0.00 | 68 | 1016.9 |
| 20260906010320 | 81 | 288 | 1.0 | 7.0 | 0.00 | 0.00 | 0.00 | 65 | 1016.5 |
| 20260906010224 | 81 | 307 | 1.0 | 4.0 | 0.00 | 0.00 | 0.00 | 65 | 1016.2 |
| 20260906010119 | 81 | 205 | 2.0 | 4.0 | 0.00 | 0.00 | 0.00 | 65 | 1016.0 |
| 20260906010019 | 82 | 130 | 2.0 | 6.0 | 0.00 | 0.00 | 0.00 | 65 | 1016.1 |
| 20260906005920 | 82 | 200 | 2.0 | 6.0 | 0.00 | 0.00 | 0.00 | 65 | 1016.1 |
| 20260906005819 | 82 | 200 | 2.0 | 6.0 | 0.00 | 0.00 | 0.00 | 65 | 1016.1 |
| 20260906005716 | 82 | 200 | 2.0 | 6.0 | 0.00 | 0.00 | 0.00 | 65 | 1016.1 |
| 20260906005614 | 82 | 200 | 2.0 | 6.0 | 0.00 | 0.00 | 0.00 | 65 | 1016.2 |
| 20260906005416 | 82 | 200 | 2.0 | 6.0 | 0.00 | 0.00 | 0.00 | 65 | 1016.3 |
| 20260906005314 | 82 | 186 | 2.0 | 6.0 | 0.00 | 0.00 | 0.00 | 65 | 1016.2 |
| 20260906005212 | 82 | 183 | 1.0 | 6.0 | 0.00 | 0.00 | 0.00 | 65 | 1016.2 |
| 20260906005113 | 82 | 200 | 1.0 | 6.0 | 0.00 | 0.00 | 0.00 | 64 | 1016.2 |
| 20260906005012 | 82 | 190 | 2.0 | 4.0 | 0.00 | 0.00 | 0.00 | 64 | 1016.2 |
| 20260906004911 | 82 | 190 | 2.0 | 4.0 | 0.00 | 0.00 | 0.00 | 64 | 1016.2 |
| 20260906004814 | 82 | 190 | 2.0 | 4.0 | 0.00 | 0.00 | 0.00 | 64 | 1016.3 |
| 20260906004733 | 83 | 78 | 2.0 | 4.0 | 0.00 | 0.00 | 0.00 | 64 | 1016.3 |
| 20260906004727 | 82 | 78 | 3.0 | 4.0 | 0.00 | 0.00 | 0.00 | 64 | 1016.3 |
| 20260906004713 | 83 | 188 | 2.0 | 4.0 | 0.00 | 0.00 | 0.00 | 64 | 1016.3 |
| 20260906004651 | 82 | 78 | 2.0 | 4.0 | 0.00 | 0.00 | 0.00 | 64 | 1016.3 |
| 20260906004304 | 82 | 78 | 3.0 | 4.0 | 0.00 | 0.00 | 0.00 | 64 | 1016.3 |
| 20260906004204 | 82 | 78 | 3.0 | 4.0 | 0.00 | 0.00 | 0.00 | 64 | 1016.3 |
| 20260906004104 | 82 | 78 | 3.0 | 4.0 | 0.00 | 0.00 | 0.00 | 65 | 1016.3 |
| 20260906004005 | 82 | 77 | 3.0 | 4.0 | 0.00 | 0.00 | 0.00 | 65 | 1016.2 |
| 20260906003905 | 82 | 91 | 2.0 | 4.0 | 0.00 | 0.00 | 0.00 | 65 | 1016.3 |
| 20260906003802 | 82 | 88 | 2.0 | 4.0 | 0.00 | 0.00 | 0.00 | 65 | 1016.3 |
| 20260906003701 | 82 | 72 | 2.0 | 4.0 | 0.00 | 0.00 | 0.00 | 65 | 1016.3 |
| 20260906003600 | 82 | 91 | 2.0 | 4.0 | 0.00 | 0.00 | 0.00 | 65 | 1016.3 |
| 20260906003458 | 82 | 101 | 2.0 | 4.0 | 0.00 | 0.00 | 0.00 | 65 | 1016.3 |
| 20260906003400 | 82 | 101 | 2.0 | 4.0 | 0.00 | 0.00 | 0.00 | 65 | 1016.3 |
| 20260906003304 | 82 | 102 | 2.0 | 4.0 | 0.00 | 0.00 | 0.00 | 65 | 1016.3 |
| 20260906003201 | 82 | 102 | 2.0 | 4.0 | 0.00 | 0.00 | 0.00 | 65 | 1016.3 |
| 20260906003056 | 82 | 169 | 2.0 | 4.0 | 0.00 | 0.00 | 0.00 | 65 | 1016.4 |
| 20260906002953 | 82 | 169 | 1.0 | 4.0 | 0.00 | 0.00 | 0.00 | 65 | 1016.4 |
| 20260906002854 | 82 | 169 | 1.0 | 4.0 | 0.00 | 0.00 | 0.00 | 65 | 1016.4 |
| 20260906002739 | 82 | 169 | 1.0 | 4.0 | 0.00 | 0.00 | 0.00 | 65 | 1016.4 |
| 20260906002716 | 82 | 169 | 1.0 | 3.0 | 0.00 | 0.00 | 0.00 | 65 | 1016.3 |
| 20260906002703 | 82 | 169 | 1.0 | 3.0 | 0.00 | 0.00 | 0.00 | 65 | 1016.3 |
| 20260906002439 | 82 | 169 | 1.0 | 3.0 | 0.00 | 0.00 | 0.00 | 65 | 1016.3 |
| 20260906002412 | 82 | 169 | 1.0 | 3.0 | 0.00 | 0.00 | 0.00 | 65 | 1016.4 |
| 20260906002357 | 82 | 169 | 1.0 | 3.0 | 0.00 | 0.00 | 0.00 | 65 | 1016.3 |
| 20260906002142 | 82 | 169 | 1.0 | 3.0 | 0.00 | 0.00 | 0.00 | 65 | 1016.5 |
| 20260906002036 | 82 | 187 | 1.0 | 3.0 | 0.00 | 0.00 | 0.00 | 65 | 1016.4 |
| 20260906001933 | 82 | 187 | 1.0 | 3.0 | 0.00 | 0.00 | 0.00 | 65 | 1016.5 |
| 20260906001833 | 82 | 187 | 1.0 | 3.0 | 0.00 | 0.00 | 0.00 | 65 | 1016.5 |
| 20260906001731 | 82 | 187 | 1.0 | 4.0 | 0.00 | 0.00 | 0.00 | 65 | 1016.4 |
| 20260906001658 | 82 | 132 | 1.0 | 4.0 | 0.00 | 0.00 | 0.00 | 65 | 1016.5 |
| 20260906001648 | 82 | 152 | 1.0 | 4.0 | 0.00 | 0.00 | 0.00 | 65 | 1016.5 |
| 20260906001433 | 82 | 132 | 1.0 | 4.0 | 0.00 | 0.00 | 0.00 | 65 | 1016.4 |
| 20260906001316 | 82 | 132 | 1.0 | 4.0 | 0.00 | 0.00 | 0.00 | 65 | 1016.5 |
| 20260906001216 | 82 | 132 | 1.0 | 4.0 | 0.00 | 0.00 | 0.00 | 65 | 1016.5 |
| 20260906001118 | 82 | 111 | 1.0 | 4.0 | 0.00 | 0.00 | 0.00 | 66 | 1016.5 |
| 20260906001016 | 82 | 111 | 1.0 | 4.0 | 0.00 | 0.00 | 0.00 | 66 | 1016.5 |
| 20260906000917 | 82 | 111 | 1.0 | 4.0 | 0.00 | 0.00 | 0.00 | 65 | 1016.5 |
| 20260906000813 | 82 | 108 | 1.0 | 4.0 | 0.00 | 0.00 | 0.00 | 65 | 1016.5 |
| 20260906000712 | 82 | 141 | 1.0 | 3.0 | 0.00 | 0.00 | 0.00 | 65 | 1016.4 |
| 20260906000612 | 82 | 283 | 1.0 | 3.0 | 0.00 | 0.00 | 0.00 | 65 | 1016.3 |
| 20260906000513 | 82 | 94 | 1.0 | 3.0 | 0.00 | 0.00 | 0.00 | 65 | 1016.3 |
| 20260906000411 | 82 | 130 | 1.0 | 3.0 | 0.00 | 0.00 | 0.00 | 65 | 1016.3 |
| 20260906000305 | 82 | 130 | 1.0 | 3.0 | 0.00 | 0.00 | 0.00 | 65 | 1016.3 |
| 20260906000242 | 82 | 130 | 1.0 | 3.0 | 0.00 | 0.00 | 0.00 | 65 | 1016.3 |
| 20260906000230 | 82 | 129 | 1.0 | 3.0 | 0.00 | 0.00 | 0.00 | 65 | 1016.3 |
| 20260906000004 | 82 | 130 | 1.0 | 3.0 | 0.00 | 0.00 | 0.00 | 65 | 1016.3 |
| 20260905235904 | 82 | 136 | 1.0 | 3.0 | 0.00 | 0.00 | 0.00 | 65 | 1016.4 |
| 20260905235755 | 82 | 131 | 1.0 | 3.0 | 0.00 | 0.00 | 0.00 | 65 | 1016.4 |
| 20260905235654 | 82 | 200 | 1.0 | 3.0 | 0.00 | 0.00 | 0.00 | 65 | 1016.4 |
| 20260905235555 | 82 | 200 | 1.0 | 3.0 | 0.00 | 0.00 | 0.00 | 65 | 1016.4 |
| 20260905235456 | 82 | 200 | 1.0 | 3.0 | 0.00 | 0.00 | 0.00 | 65 | 1016.4 |
| 20260905235351 | 82 | 200 | 1.0 | 3.0 | 0.00 | 0.00 | 0.00 | 65 | 1016.5 |
| 20260905235246 | 82 | 200 | 1.0 | 4.0 | 0.00 | 0.00 | 0.00 | 65 | 1016.5 |
| 20260905235145 | 82 | 200 | 1.0 | 4.0 | 0.00 | 0.00 | 0.00 | 65 | 1016.5 |
| 20260905235049 | 82 | 200 | 1.0 | 4.0 | 0.00 | 0.00 | 0.00 | 66 | 1016.5 |
| 20260905234946 | 82 | 201 | 1.0 | 4.0 | 0.00 | 0.00 | 0.00 | 66 | 1016.5 |
| 20260905234845 | 82 | 198 | 1.0 | 4.0 | 0.00 | 0.00 | 0.00 | 65 | 1016.5 |
| 20260905234744 | 82 | 198 | 1.0 | 4.0 | 0.00 | 0.00 | 0.00 | 65 | 1016.4 |
| 20260905234642 | 82 | 198 | 1.0 | 4.0 | 0.00 | 0.00 | 0.00 | 65 | 1016.4 |
| 20260905234626 | 82 | 132 | 1.0 | 4.0 | 0.00 | 0.00 | 0.00 | 65 | 1016.3 |
| 20260905234612 | 82 | 208 | 1.0 | 4.0 | 0.00 | 0.00 | 0.00 | 65 | 1016.3 |
| 20260905234339 | 82 | 74 | 1.0 | 6.0 | 0.00 | 0.00 | 0.00 | 65 | 1016.3 |
| 20260905234233 | 82 | 71 | 1.0 | 6.0 | 0.00 | 0.00 | 0.00 | 65 | 1016.3 |
| 20260905234132 | 82 | 75 | 1.0 | 6.0 | 0.00 | 0.00 | 0.00 | 65 | 1016.3 |
| 20260905234032 | 82 | 75 | 1.0 | 6.0 | 0.00 | 0.00 | 0.00 | 65 | 1016.2 |
| 20260905233931 | 82 | 74 | 2.0 | 6.0 | 0.00 | 0.00 | 0.00 | 64 | 1016.2 |
| 20260905233855 | 82 | 119 | 2.0 | 6.0 | 0.00 | 0.00 | 0.00 | 64 | 1016.2 |
| 20260905233846 | 82 | 119 | 1.0 | 6.0 | 0.00 | 0.00 | 0.00 | 64 | 1016.2 |
| 20260905233625 | 82 | 119 | 2.0 | 6.0 | 0.00 | 0.00 | 0.00 | 64 | 1016.1 |
| 20260905233525 | 82 | 119 | 2.0 | 6.0 | 0.00 | 0.00 | 0.00 | 64 | 1016.2 |
| 20260905233426 | 82 | 89 | 2.0 | 6.0 | 0.00 | 0.00 | 0.00 | 64 | 1016.2 |
| 20260905233323 | 82 | 39 | 1.0 | 5.0 | 0.00 | 0.00 | 0.00 | 64 | 1016.2 |
| 20260905233221 | 82 | 103 | 1.0 | 5.0 | 0.00 | 0.00 | 0.00 | 64 | 1016.2 |
| 20260905233146 | 82 | 73 | 1.0 | 5.0 | 0.00 | 0.00 | 0.00 | 65 | 1016.2 |
| 20260905233137 | 82 | 132 | 1.0 | 5.0 | 0.00 | 0.00 | 0.00 | 65 | 1016.2 |
| 20260905232919 | 82 | 73 | 2.0 | 5.0 | 0.00 | 0.00 | 0.00 | 66 | 1016.3 |
| 20260905232817 | 82 | 73 | 2.0 | 5.0 | 0.00 | 0.00 | 0.00 | 66 | 1016.3 |
| 20260905232706 | 82 | 170 | 2.0 | 6.0 | 0.00 | 0.00 | 0.00 | 66 | 1016.3 |
| 20260905232602 | 82 | 208 | 2.0 | 6.0 | 0.00 | 0.00 | 0.00 | 66 | 1016.2 |
| 20260905232538 | 82 | 119 | 2.0 | 7.0 | 0.00 | 0.00 | 0.00 | 66 | 1016.1 |
| 20260905232531 | 82 | 120 | 3.0 | 7.0 | 0.00 | 0.00 | 0.00 | 66 | 1016.1 |
| 20260905232515 | 82 | 145 | 2.0 | 7.0 | 0.00 | 0.00 | 0.00 | 66 | 1016.2 |
| 20260905232446 | 82 | 119 | 2.0 | 7.0 | 0.00 | 0.00 | 0.00 | 66 | 1016.2 |
| 20260905232115 | 82 | 97 | 3.0 | 7.0 | 0.00 | 0.00 | 0.00 | 66 | 1016.1 |
| 20260905231957 | 82 | 66 | 3.0 | 7.0 | 0.00 | 0.00 | 0.00 | 66 | 1016.1 |
| 20260905231856 | 82 | 69 | 2.0 | 7.0 | 0.00 | 0.00 | 0.00 | 66 | 1016.1 |
| 20260905231757 | 82 | 77 | 2.0 | 7.0 | 0.00 | 0.00 | 0.00 | 66 | 1016.2 |
| 20260905231656 | 81 | 76 | 2.0 | 7.0 | 0.00 | 0.00 | 0.00 | 66 | 1016.1 |
| 20260905231555 | 81 | 76 | 2.0 | 7.0 | 0.00 | 0.00 | 0.00 | 67 | 1016.2 |
| 20260905231452 | 81 | 57 | 2.0 | 6.0 | 0.00 | 0.00 | 0.00 | 66 | 1016.2 |
| 20260905231353 | 81 | 107 | 2.0 | 6.0 | 0.00 | 0.00 | 0.00 | 67 | 1016.2 |
| 20260905231250 | 81 | 92 | 2.0 | 4.0 | 0.00 | 0.00 | 0.00 | 67 | 1016.2 |
| 20260905231145 | 81 | 91 | 2.0 | 4.0 | 0.00 | 0.00 | 0.00 | 67 | 1016.2 |
| 20260905231045 | 81 | 92 | 2.0 | 4.0 | 0.00 | 0.00 | 0.00 | 68 | 1016.2 |
| 20260905230944 | 81 | 89 | 2.0 | 4.0 | 0.00 | 0.00 | 0.00 | 68 | 1016.2 |
| 20260905230844 | 81 | 87 | 2.0 | 4.0 | 0.00 | 0.00 | 0.00 | 68 | 1016.1 |
| 20260905230741 | 81 | 87 | 2.0 | 4.0 | 0.00 | 0.00 | 0.00 | 68 | 1016.1 |
| 20260905230639 | 81 | 84 | 2.0 | 4.0 | 0.00 | 0.00 | 0.00 | 68 | 1016.1 |
| 20260905230540 | 81 | 84 | 2.0 | 7.0 | 0.00 | 0.00 | 0.00 | 68 | 1016.1 |
| 20260905230445 | 81 | 84 | 2.0 | 7.0 | 0.00 | 0.00 | 0.00 | 69 | 1016.2 |
| 20260905230337 | 81 | 83 | 2.0 | 7.0 | 0.00 | 0.00 | 0.00 | 68 | 1016.2 |
| 20260905230235 | 81 | 129 | 1.0 | 7.0 | 0.00 | 0.00 | 0.00 | 68 | 1016.2 |
| 20260905230206 | 81 | 130 | 1.0 | 7.0 | 0.00 | 0.00 | 0.00 | 68 | 1016.2 |
| 20260905230157 | 81 | 129 | 1.0 | 7.0 | 0.00 | 0.00 | 0.00 | 68 | 1016.3 |
| 20260905225931 | 81 | 130 | 1.0 | 7.0 | 0.00 | 0.00 | 0.00 | 68 | 1016.3 |
| 20260905225829 | 81 | 69 | 1.0 | 7.0 | 0.00 | 0.00 | 0.00 | 68 | 1016.3 |
| 20260905225729 | 81 | 186 | 1.0 | 7.0 | 0.00 | 0.00 | 0.00 | 68 | 1016.3 |
| 20260905225641 | 81 | 99 | 2.0 | 7.0 | 0.00 | 0.00 | 0.00 | 67 | 1016.0 |
| 20260905225628 | 81 | 88 | 1.0 | 7.0 | 0.00 | 0.00 | 0.00 | 69 | 1016.3 |
| 20260905225604 | 81 | 160 | 1.0 | 6.0 | 0.00 | 0.00 | 0.00 | 68 | 1016.3 |
| 20260905225450 | 81 | 99 | 2.0 | 7.0 | 0.00 | 0.00 | 0.00 | 68 | 1015.9 |
| 20260905225444 | 81 | 186 | 2.0 | 6.0 | 0.00 | 0.00 | 0.00 | 68 | 1016.2 |
| 20260905225426 | 81 | 160 | 2.0 | 6.0 | 0.00 | 0.00 | 0.00 | 68 | 1016.3 |
| 20260905225354 | 81 | 186 | 2.0 | 6.0 | 0.00 | 0.00 | 0.00 | 68 | 1016.2 |
| 20260905225315 | 81 | 113 | 2.0 | 6.0 | 0.00 | 0.00 | 0.00 | 68 | 1016.3 |
| 20260905225149 | 81 | 113 | 2.0 | 6.0 | 0.00 | 0.00 | 0.00 | 68 | 1016.3 |
| 20260905225028 | 81 | 113 | 3.0 | 6.0 | 0.00 | 0.00 | 0.00 | 68 | 1016.2 |
| 20260905225007 | 81 | 113 | 3.0 | 7.0 | 0.00 | 0.00 | 0.00 | 68 | 1016.2 |
| 20260905224839 | 81 | 90 | 3.0 | 7.0 | 0.00 | 0.00 | 0.00 | 68 | 1016.2 |
| 20260905224711 | 81 | 71 | 3.0 | 7.0 | 0.00 | 0.00 | 0.00 | 68 | 1016.1 |
| 20260905224646 | 81 | 71 | 3.0 | 7.0 | 0.00 | 0.00 | 0.00 | 68 | 1016.1 |
| 20260905224306 | 82 | 80 | 2.0 | 7.0 | 0.00 | 0.00 | 0.00 | 67 | 1016.0 |
| 20260905224202 | 82 | 79 | 2.0 | 7.0 | 0.00 | 0.00 | 0.00 | 67 | 1016.0 |
| 20260905224053 | 82 | 119 | 2.0 | 7.0 | 0.00 | 0.00 | 0.00 | 67 | 1016.0 |
| 20260905223951 | 82 | 68 | 2.0 | 7.0 | 0.00 | 0.00 | 0.00 | 67 | 1016.0 |
| 20260905223852 | 82 | 105 | 2.0 | 7.0 | 0.00 | 0.00 | 0.00 | 68 | 1016.0 |
| 20260905223752 | 82 | 117 | 1.0 | 7.0 | 0.00 | 0.00 | 0.00 | 68 | 1016.1 |
| 20260905223653 | 82 | 175 | 1.0 | 7.0 | 0.00 | 0.00 | 0.00 | 67 | 1016.1 |
| 20260905223552 | 82 | 62 | 1.0 | 7.0 | 0.00 | 0.00 | 0.00 | 67 | 1016.1 |
| 20260905223451 | 82 | 62 | 1.0 | 8.0 | 0.00 | 0.00 | 0.00 | 68 | 1016.1 |
| 20260905223351 | 82 | 62 | 1.0 | 8.0 | 0.00 | 0.00 | 0.00 | 68 | 1016.1 |
| 20260905223249 | 82 | 188 | 1.0 | 8.0 | 0.00 | 0.00 | 0.00 | 67 | 1016.2 |
| 20260905223219 | 82 | 167 | 1.0 | 8.0 | 0.00 | 0.00 | 0.00 | 68 | 1016.2 |
| 20260905223208 | 82 | 86 | 1.0 | 8.0 | 0.00 | 0.00 | 0.00 | 68 | 1016.2 |
| 20260905222944 | 82 | 113 | 1.0 | 8.0 | 0.00 | 0.00 | 0.00 | 68 | 1016.2 |
| 20260905222844 | 82 | 117 | 2.0 | 8.0 | 0.00 | 0.00 | 0.00 | 69 | 1016.2 |
| 20260905222742 | 82 | 180 | 2.0 | 8.0 | 0.00 | 0.00 | 0.00 | 68 | 1016.2 |
| 20260905222642 | 82 | 180 | 2.0 | 8.0 | 0.00 | 0.00 | 0.00 | 68 | 1016.3 |
| 20260905222529 | 82 | 180 | 2.0 | 8.0 | 0.00 | 0.00 | 0.00 | 68 | 1016.3 |
| 20260905222426 | 82 | 104 | 2.0 | 8.0 | 0.00 | 0.00 | 0.00 | 68 | 1016.4 |